GEFSSE_prec_meanprecacc_126.txt.gz
Total_Precipitation_Accumulation
0.01 0.05 0.14 0.20 0.22 0.15 0.10 0.08 0.07 0.08 0.09 0.11 0.12 0.11 0.10 0.09 0.09 0.09 0.11 0.13 0.20 0.25 0.29 0.33 0.42 0.46 0.43 0.34 0.23 0.12 0.07 0.05 0.03 0.03 0.03 0.05 0.08 0.10 0.10 0.10 0.12 0.16 0.20
0.01 0.04 0.11 0.19 0.21 0.15 0.11 0.08 0.06 0.06 0.07 0.09 0.11 0.12 0.12 0.10 0.10 0.14 0.16 0.18 0.21 0.25 0.30 0.38 0.44 0.43 0.37 0.29 0.16 0.08 0.03 0.01 0.01 0.00 0.00 0.01 0.04 0.07 0.07 0.07 0.10 0.19 0.24
0.01 0.04 0.09 0.17 0.19 0.15 0.11 0.07 0.05 0.05 0.06 0.08 0.11 0.12 0.12 0.11 0.12 0.17 0.20 0.21 0.22 0.23 0.27 0.33 0.33 0.27 0.25 0.20 0.10 0.05 0.02 0.01 0.01 0.01 0.02 0.04 0.05 0.09 0.10 0.09 0.13 0.19 0.23
0.01 0.03 0.07 0.13 0.16 0.14 0.10 0.06 0.04 0.05 0.06 0.08 0.11 0.13 0.14 0.13 0.15 0.19 0.21 0.19 0.19 0.21 0.23 0.20 0.14 0.11 0.12 0.11 0.06 0.03 0.02 0.02 0.01 0.02 0.05 0.07 0.09 0.16 0.17 0.15 0.15 0.15 0.17
0.01 0.03 0.08 0.11 0.14 0.13 0.09 0.05 0.05 0.05 0.06 0.08 0.10 0.13 0.14 0.14 0.15 0.17 0.17 0.15 0.14 0.14 0.12 0.07 0.05 0.05 0.05 0.04 0.04 0.03 0.02 0.01 0.01 0.03 0.05 0.08 0.12 0.23 0.20 0.17 0.17 0.19 0.17
0.04 0.05 0.11 0.13 0.14 0.12 0.08 0.06 0.06 0.06 0.06 0.07 0.08 0.10 0.14 0.14 0.14 0.14 0.12 0.09 0.09 0.07 0.06 0.04 0.03 0.03 0.02 0.02 0.01 0.01 0.01 0.01 0.01 0.02 0.04 0.07 0.12 0.24 0.20 0.17 0.16 0.18 0.18
0.06 0.09 0.15 0.16 0.15 0.13 0.09 0.07 0.07 0.07 0.07 0.07 0.07 0.10 0.13 0.15 0.14 0.11 0.07 0.06 0.05 0.05 0.04 0.03 0.03 0.02 0.01 0.01 0.01 0.01 0.01 0.01 0.01 0.02 0.04 0.07 0.13 0.23 0.20 0.15 0.14 0.15 0.15
0.08 0.14 0.21 0.23 0.18 0.13 0.10 0.09 0.08 0.08 0.08 0.08 0.09 0.11 0.13 0.13 0.11 0.09 0.07 0.06 0.05 0.05 0.04 0.03 0.03 0.02 0.01 0.01 0.01 0.01 0.01 0.01 0.01 0.02 0.03 0.05 0.08 0.13 0.10 0.09 0.10 0.11 0.11
0.16 0.23 0.27 0.29 0.25 0.18 0.15 0.13 0.10 0.09 0.08 0.09 0.11 0.12 0.11 0.10 0.09 0.07 0.07 0.06 0.05 0.04 0.04 0.03 0.03 0.02 0.02 0.01 0.01 0.01 0.00 0.00 0.01 0.01 0.02 0.02 0.04 0.06 0.07 0.09 0.10 0.12 0.13
0.33 0.35 0.34 0.32 0.27 0.20 0.16 0.14 0.11 0.08 0.08 0.09 0.09 0.08 0.08 0.07 0.07 0.06 0.05 0.04 0.04 0.03 0.03 0.03 0.03 0.03 0.02 0.01 0.01 0.00 0.00 0.01 0.01 0.01 0.01 0.01 0.02 0.03 0.05 0.08 0.10 0.11 0.13
0.57 0.50 0.45 0.39 0.31 0.21 0.17 0.13 0.11 0.08 0.07 0.07 0.07 0.06 0.07 0.08 0.06 0.04 0.03 0.02 0.02 0.02 0.03 0.02 0.02 0.02 0.01 0.01 0.00 0.00 0.00 0.01 0.00 0.00 0.01 0.01 0.02 0.03 0.05 0.07 0.08 0.10 0.11
0.64 0.64 0.55 0.45 0.35 0.28 0.20 0.16 0.14 0.10 0.08 0.07 0.06 0.06 0.07 0.08 0.06 0.03 0.03 0.02 0.02 0.02 0.02 0.02 0.01 0.01 0.00 0.00 0.00 0.00 0.00 0.00 0.00 0.00 0.01 0.01 0.02 0.03 0.04 0.06 0.06 0.07 0.07
0.62 0.68 0.69 0.57 0.43 0.31 0.24 0.19 0.15 0.11 0.08 0.07 0.05 0.06 0.08 0.08 0.05 0.04 0.03 0.03 0.02 0.02 0.02 0.02 0.01 0.00 0.00 0.00 0.00 0.00 0.00 0.00 0.00 0.00 0.00 0.00 0.01 0.02 0.04 0.04 0.05 0.06 0.06
0.76 0.69 0.75 0.69 0.55 0.39 0.28 0.22 0.19 0.14 0.09 0.06 0.05 0.05 0.06 0.06 0.04 0.03 0.02 0.02 0.02 0.02 0.02 0.02 0.01 0.00 0.00 0.00 0.00 0.00 0.00 0.00 0.00 0.00 0.00 0.00 0.00 0.01 0.02 0.03 0.04 0.05 0.07
0.95 0.84 0.86 0.80 0.65 0.52 0.39 0.27 0.23 0.20 0.13 0.08 0.06 0.05 0.04 0.04 0.03 0.02 0.02 0.01 0.01 0.01 0.02 0.01 0.01 0.00 0.00 0.00 0.00 0.00 0.00 0.00 0.00 0.00 0.00 0.00 0.00 0.00 0.01 0.02 0.03 0.05 0.07
1.16 1.09 1.07 0.99 0.82 0.67 0.53 0.34 0.24 0.22 0.18 0.13 0.09 0.07 0.06 0.04 0.03 0.02 0.02 0.01 0.01 0.01 0.01 0.01 0.01 0.01 0.01 0.01 0.00 0.00 0.00 0.00 0.00 0.00 0.00 0.00 0.00 0.00 0.00 0.01 0.02 0.05 0.08
1.21 1.24 1.24 1.18 1.08 0.85 0.70 0.53 0.34 0.27 0.23 0.18 0.13 0.09 0.06 0.05 0.04 0.03 0.03 0.02 0.02 0.03 0.02 0.02 0.02 0.02 0.01 0.01 0.01 0.01 0.00 0.00 0.00 0.00 0.00 0.00 0.00 0.00 0.00 0.01 0.02 0.05 0.07
1.34 1.29 1.36 1.34 1.26 1.11 0.95 0.78 0.55 0.40 0.31 0.24 0.18 0.12 0.09 0.06 0.04 0.04 0.03 0.03 0.03 0.03 0.03 0.02 0.01 0.01 0.01 0.01 0.01 0.01 0.00 0.00 0.00 0.00 0.00 0.00 0.00 0.00 0.00 0.01 0.02 0.03 0.05
1.41 1.42 1.44 1.42 1.43 1.42 1.34 1.18 0.90 0.66 0.52 0.41 0.32 0.20 0.13 0.09 0.07 0.06 0.05 0.04 0.04 0.03 0.02 0.01 0.01 0.01 0.01 0.01 0.01 0.01 0.01 0.00 0.00 0.00 0.00 0.00 0.00 0.00 0.00 0.00 0.01 0.02 0.03
1.60 1.63 1.58 1.56 1.59 1.73 1.77 1.61 1.37 1.05 0.80 0.60 0.44 0.35 0.27 0.20 0.15 0.11 0.09 0.07 0.06 0.05 0.04 0.03 0.03 0.02 0.02 0.02 0.02 0.01 0.01 0.00 0.00 0.00 0.00 0.00 0.00 0.00 0.00 0.01 0.01 0.01 0.02
1.62 1.72 1.74 1.64 1.66 1.85 1.74 1.53 1.30 1.10 1.01 0.85 0.66 0.55 0.45 0.35 0.27 0.20 0.15 0.13 0.11 0.10 0.09 0.08 0.07 0.06 0.05 0.04 0.04 0.03 0.01 0.01 0.01 0.01 0.01 0.01 0.01 0.01 0.00 0.01 0.01 0.01 0.02
1.41 1.63 1.69 1.73 1.76 1.83 1.75 1.62 1.53 1.49 1.39 1.27 1.11 0.81 0.60 0.48 0.38 0.30 0.24 0.20 0.18 0.18 0.16 0.15 0.14 0.13 0.11 0.09 0.09 0.10 0.05 0.02 0.01 0.01 0.01 0.01 0.01 0.01 0.01 0.01 0.02 0.02 0.03
0.97 1.32 1.48 1.54 1.60 1.64 1.83 2.07 1.99 1.83 1.56 1.29 1.05 0.94 0.84 0.77 0.66 0.54 0.48 0.39 0.32 0.28 0.24 0.24 0.23 0.20 0.19 0.16 0.16 0.20 0.18 0.10 0.06 0.03 0.03 0.03 0.03 0.03 0.04 0.04 0.04 0.04 0.04
0.66 0.92 1.24 1.42 1.49 1.48 1.58 1.79 1.83 1.67 1.35 1.14 1.08 1.09 1.11 1.03 0.92 0.84 0.74 0.62 0.51 0.43 0.37 0.38 0.37 0.34 0.33 0.30 0.27 0.25 0.26 0.25 0.26 0.17 0.07 0.06 0.06 0.06 0.07 0.07 0.06 0.06 0.07
0.47 0.69 1.01 1.23 1.39 1.39 1.37 1.46 1.64 1.68 1.60 1.47 1.34 1.21 1.13 1.09 1.01 0.95 0.86 0.80 0.68 0.61 0.56 0.55 0.52 0.51 0.49 0.46 0.43 0.39 0.37 0.35 0.36 0.40 0.25 0.13 0.12 0.12 0.12 0.12 0.12 0.13 0.14
0.32 0.46 0.74 0.99 1.19 1.32 1.34 1.37 1.43 1.47 1.57 1.49 1.34 1.27 1.19 1.13 1.05 0.98 0.94 0.88 0.83 0.77 0.72 0.70 0.70 0.66 0.62 0.60 0.58 0.56 0.57 0.55 0.50 0.56 0.53 0.36 0.30 0.24 0.23 0.23 0.23 0.22 0.22

GEFSSE_prec_meanprecacc_132.txt.gz
Total_Precipitation_Accumulation
0.02 0.05 0.15 0.21 0.23 0.15 0.10 0.09 0.07 0.08 0.10 0.11 0.12 0.11 0.11 0.09 0.09 0.09 0.11 0.14 0.20 0.26 0.30 0.34 0.43 0.47 0.44 0.35 0.24 0.13 0.08 0.05 0.04 0.03 0.03 0.05 0.09 0.11 0.11 0.10 0.12 0.16 0.21
0.02 0.05 0.12 0.20 0.22 0.15 0.12 0.09 0.07 0.06 0.07 0.09 0.11 0.12 0.12 0.10 0.11 0.14 0.17 0.18 0.22 0.26 0.32 0.39 0.45 0.43 0.38 0.30 0.17 0.08 0.04 0.01 0.01 0.00 0.00 0.02 0.04 0.07 0.07 0.07 0.10 0.19 0.25
0.04 0.05 0.10 0.18 0.20 0.16 0.12 0.08 0.05 0.05 0.06 0.08 0.11 0.13 0.12 0.12 0.13 0.18 0.21 0.21 0.23 0.24 0.28 0.34 0.34 0.28 0.26 0.21 0.10 0.05 0.03 0.02 0.01 0.01 0.02 0.04 0.06 0.10 0.11 0.10 0.14 0.20 0.24
0.05 0.06 0.09 0.16 0.18 0.15 0.11 0.06 0.04 0.05 0.07 0.09 0.11 0.13 0.15 0.14 0.17 0.20 0.22 0.20 0.20 0.22 0.24 0.21 0.15 0.12 0.13 0.11 0.07 0.04 0.03 0.02 0.02 0.02 0.05 0.07 0.09 0.16 0.17 0.15 0.15 0.16 0.17
0.08 0.08 0.11 0.15 0.18 0.16 0.11 0.07 0.06 0.06 0.07 0.09 0.11 0.14 0.17 0.16 0.17 0.19 0.19 0.16 0.16 0.16 0.13 0.08 0.06 0.05 0.05 0.05 0.04 0.03 0.02 0.01 0.02 0.03 0.05 0.08 0.12 0.23 0.21 0.18 0.18 0.19 0.18
0.12 0.15 0.18 0.19 0.19 0.17 0.13 0.09 0.08 0.08 0.07 0.08 0.09 0.12 0.16 0.17 0.16 0.16 0.14 0.10 0.10 0.09 0.06 0.04 0.04 0.03 0.02 0.02 0.01 0.01 0.01 0.01 0.01 0.03 0.04 0.07 0.12 0.24 0.21 0.17 0.17 0.18 0.19
0.15 0.19 0.25 0.25 0.22 0.19 0.15 0.13 0.12 0.11 0.08 0.08 0.09 0.11 0.15 0.17 0.15 0.12 0.09 0.08 0.06 0.06 0.05 0.04 0.03 0.02 0.01 0.01 0.01 0.01 0.01 0.01 0.01 0.02 0.04 0.07 0.13 0.23 0.20 0.15 0.14 0.15 0.15
0.15 0.25 0.33 0.36 0.29 0.21 0.16 0.16 0.15 0.14 0.12 0.10 0.10 0.13 0.15 0.16 0.14 0.10 0.09 0.08 0.06 0.06 0.05 0.04 0.03 0.02 0.01 0.01 0.01 0.01 0.01 0.01 0.01 0.02 0.04 0.05 0.08 0.13 0.11 0.09 0.10 0.11 0.11
0.23 0.32 0.39 0.45 0.40 0.30 0.25 0.21 0.17 0.17 0.16 0.14 0.14 0.15 0.14 0.14 0.12 0.09 0.08 0.08 0.07 0.05 0.05 0.04 0.03 0.02 0.02 0.01 0.01 0.01 0.00 0.00 0.01 0.01 0.02 0.02 0.04 0.06 0.07 0.09 0.11 0.12 0.13
0.41 0.43 0.47 0.51 0.45 0.36 0.29 0.24 0.19 0.16 0.15 0.16 0.15 0.12 0.12 0.11 0.11 0.09 0.06 0.07 0.05 0.04 0.04 0.03 0.03 0.03 0.02 0.01 0.01 0.00 0.00 0.01 0.01 0.01 0.01 0.01 0.03 0.04 0.05 0.08 0.10 0.11 0.13
0.69 0.60 0.56 0.57 0.53 0.41 0.32 0.27 0.22 0.18 0.16 0.15 0.13 0.12 0.11 0.12 0.10 0.08 0.05 0.04 0.03 0.03 0.03 0.02 0.02 0.02 0.01 0.01 0.00 0.00 0.00 0.01 0.00 0.00 0.01 0.01 0.02 0.03 0.05 0.07 0.08 0.10 0.11
0.82 0.77 0.68 0.60 0.56 0.50 0.40 0.31 0.27 0.22 0.18 0.16 0.13 0.13 0.12 0.12 0.09 0.05 0.05 0.05 0.03 0.02 0.02 0.02 0.01 0.01 0.00 0.00 0.00 0.00 0.00 0.00 0.00 0.00 0.01 0.01 0.02 0.03 0.04 0.06 0.06 0.07 0.07
0.87 0.90 0.85 0.74 0.61 0.53 0.47 0.36 0.29 0.23 0.18 0.16 0.14 0.13 0.13 0.13 0.09 0.06 0.05 0.06 0.04 0.02 0.03 0.03 0.01 0.00 0.00 0.00 0.00 0.00 0.00 0.00 0.00 0.00 0.00 0.00 0.01 0.02 0.04 0.04 0.05 0.06 0.06
1.05 0.98 0.98 0.90 0.75 0.58 0.49 0.40 0.34 0.28 0.21 0.16 0.13 0.12 0.12 0.11 0.08 0.05 0.03 0.03 0.03 0.02 0.03 0.02 0.01 0.00 0.00 0.00 0.00 0.00 0.00 0.00 0.00 0.00 0.00 0.00 0.00 0.01 0.02 0.03 0.04 0.05 0.07
1.21 1.12 1.13 1.02 0.85 0.70 0.58 0.44 0.38 0.35 0.27 0.18 0.14 0.13 0.11 0.09 0.06 0.04 0.03 0.02 0.02 0.01 0.02 0.01 0.01 0.00 0.00 0.00 0.00 0.00 0.00 0.00 0.00 0.00 0.00 0.00 0.00 0.00 0.01 0.02 0.03 0.05 0.07
1.40 1.36 1.35 1.24 1.06 0.85 0.70 0.53 0.39 0.37 0.33 0.27 0.20 0.15 0.14 0.11 0.07 0.04 0.03 0.03 0.02 0.02 0.02 0.01 0.01 0.01 0.01 0.01 0.01 0.00 0.00 0.00 0.00 0.00 0.00 0.00 0.00 0.00 0.00 0.01 0.03 0.06 0.09
1.44 1.49 1.52 1.45 1.34 1.07 0.87 0.74 0.54 0.43 0.40 0.33 0.26 0.20 0.17 0.14 0.11 0.07 0.05 0.04 0.03 0.04 0.03 0.03 0.03 0.02 0.01 0.01 0.01 0.01 0.01 0.01 0.01 0.01 0.01 0.00 0.00 0.00 0.00 0.01 0.03 0.05 0.07
1.57 1.52 1.65 1.66 1.55 1.37 1.14 0.96 0.78 0.60 0.49 0.39 0.30 0.22 0.19 0.17 0.13 0.10 0.07 0.05 0.05 0.05 0.04 0.03 0.03 0.02 0.02 0.02 0.01 0.02 0.01 0.01 0.00 0.01 0.01 0.00 0.00 0.00 0.00 0.01 0.02 0.03 0.05
1.65 1.67 1.70 1.78 1.78 1.73 1.60 1.41 1.15 0.91 0.72 0.58 0.46 0.32 0.23 0.20 0.17 0.13 0.10 0.08 0.07 0.05 0.04 0.03 0.02 0.02 0.02 0.02 0.02 0.01 0.01 0.00 0.00 0.00 0.00 0.00 0.00 0.00 0.00 0.00 0.01 0.02 0.03
1.86 1.92 1.81 1.88 2.01 2.08 2.10 1.90 1.66 1.34 1.05 0.80 0.61 0.49 0.37 0.29 0.25 0.19 0.14 0.11 0.10 0.09 0.07 0.05 0.04 0.03 0.03 0.03 0.03 0.02 0.01 0.01 0.00 0.00 0.00 0.00 0.01 0.01 0.00 0.01 0.01 0.01 0.02
1.86 2.03 1.97 1.90 2.05 2.28 2.11 1.86 1.62 1.41 1.26 1.06 0.86 0.72 0.57 0.44 0.37 0.29 0.21 0.17 0.15 0.13 0.12 0.11 0.10 0.09 0.07 0.06 0.06 0.04 0.02 0.02 0.01 0.01 0.01 0.01 0.01 0.01 0.01 0.01 0.01 0.01 0.02
1.68 1.93 1.94 1.97 2.10 2.27 2.13 1.98 1.89 1.82 1.66 1.49 1.33 1.02 0.77 0.59 0.48 0.40 0.31 0.25 0.22 0.21 0.20 0.19 0.18 0.16 0.14 0.13 0.13 0.13 0.07 0.03 0.01 0.02 0.03 0.02 0.02 0.02 0.02 0.02 0.02 0.02 0.03
1.27 1.65 1.78 1.80 1.92 2.06 2.21 2.47 2.43 2.26 1.95 1.57 1.29 1.16 1.02 0.90 0.77 0.63 0.56 0.45 0.36 0.31 0.28 0.27 0.26 0.24 0.22 0.20 0.20 0.25 0.23 0.13 0.08 0.05 0.04 0.04 0.04 0.04 0.05 0.05 0.04 0.04 0.04
0.94 1.26 1.56 1.74 1.83 1.86 1.95 2.17 2.28 2.12 1.77 1.48 1.33 1.29 1.29 1.18 1.06 0.96 0.83 0.70 0.55 0.46 0.39 0.41 0.39 0.37 0.37 0.34 0.32 0.29 0.31 0.30 0.30 0.20 0.09 0.07 0.07 0.07 0.08 0.08 0.07 0.07 0.07
0.71 0.97 1.26 1.52 1.73 1.74 1.69 1.77 1.98 2.06 1.96 1.82 1.67 1.48 1.32 1.24 1.15 1.07 0.97 0.87 0.73 0.64 0.58 0.57 0.55 0.54 0.53 0.50 0.48 0.44 0.42 0.39 0.41 0.44 0.29 0.15 0.14 0.13 0.14 0.14 0.14 0.14 0.15
0.49 0.65 0.91 1.18 1.48 1.66 1.67 1.68 1.72 1.77 1.86 1.80 1.66 1.59 1.42 1.29 1.19 1.10 1.03 0.96 0.89 0.82 0.75 0.72 0.73 0.69 0.66 0.63 0.61 0.59 0.61 0.59 0.53 0.60 0.58 0.39 0.32 0.27 0.26 0.26 0.26 0.25 0.25

GEFSSE_prec_meanprecacc_138.txt.gz
Total_Precipitation_Accumulation
0.02 0.06 0.16 0.22 0.23 0.15 0.11 0.09 0.07 0.08 0.10 0.11 0.12 0.12 0.11 0.10 0.09 0.10 0.12 0.14 0.21 0.27 0.31 0.35 0.44 0.48 0.46 0.37 0.25 0.14 0.09 0.07 0.05 0.04 0.04 0.07 0.10 0.12 0.11 0.10 0.12 0.18 0.23
0.03 0.06 0.14 0.22 0.24 0.17 0.12 0.09 0.07 0.07 0.08 0.10 0.12 0.13 0.13 0.11 0.12 0.15 0.17 0.19 0.23 0.27 0.33 0.41 0.46 0.45 0.40 0.31 0.18 0.09 0.04 0.02 0.01 0.01 0.01 0.02 0.05 0.08 0.07 0.07 0.10 0.20 0.26
0.05 0.07 0.13 0.22 0.24 0.19 0.14 0.09 0.06 0.06 0.07 0.09 0.12 0.13 0.13 0.13 0.14 0.19 0.22 0.22 0.24 0.25 0.29 0.35 0.35 0.29 0.27 0.21 0.11 0.05 0.03 0.02 0.01 0.01 0.02 0.04 0.06 0.11 0.11 0.10 0.14 0.20 0.24
0.07 0.08 0.13 0.22 0.25 0.21 0.16 0.09 0.06 0.06 0.07 0.10 0.12 0.14 0.16 0.16 0.18 0.21 0.22 0.21 0.21 0.23 0.26 0.22 0.16 0.13 0.13 0.11 0.07 0.04 0.03 0.02 0.02 0.02 0.05 0.07 0.09 0.17 0.18 0.16 0.16 0.16 0.18
0.11 0.12 0.17 0.22 0.26 0.24 0.20 0.14 0.10 0.09 0.08 0.10 0.12 0.16 0.18 0.18 0.19 0.20 0.20 0.17 0.16 0.17 0.14 0.09 0.06 0.06 0.06 0.05 0.04 0.03 0.02 0.01 0.02 0.03 0.05 0.08 0.13 0.25 0.22 0.18 0.19 0.20 0.18
0.16 0.19 0.25 0.28 0.29 0.28 0.24 0.18 0.16 0.14 0.10 0.10 0.12 0.14 0.18 0.20 0.17 0.17 0.15 0.11 0.10 0.09 0.08 0.05 0.04 0.04 0.03 0.02 0.02 0.02 0.02 0.01 0.01 0.03 0.04 0.07 0.12 0.25 0.21 0.17 0.17 0.18 0.19
0.18 0.24 0.32 0.36 0.35 0.32 0.28 0.25 0.21 0.20 0.15 0.12 0.11 0.13 0.17 0.20 0.17 0.14 0.10 0.08 0.07 0.07 0.06 0.05 0.03 0.02 0.01 0.01 0.01 0.01 0.01 0.01 0.01 0.02 0.04 0.07 0.13 0.24 0.21 0.15 0.14 0.15 0.16
0.18 0.30 0.40 0.47 0.43 0.36 0.29 0.27 0.26 0.25 0.22 0.17 0.15 0.16 0.18 0.19 0.17 0.12 0.10 0.08 0.07 0.07 0.06 0.05 0.03 0.02 0.01 0.01 0.01 0.01 0.01 0.01 0.01 0.02 0.04 0.05 0.09 0.13 0.11 0.09 0.10 0.11 0.11
0.26 0.36 0.46 0.55 0.54 0.48 0.42 0.34 0.29 0.27 0.27 0.25 0.23 0.21 0.18 0.17 0.15 0.11 0.10 0.09 0.08 0.07 0.06 0.05 0.04 0.03 0.02 0.01 0.01 0.01 0.00 0.00 0.01 0.01 0.02 0.02 0.04 0.07 0.07 0.09 0.11 0.12 0.13
0.45 0.47 0.54 0.61 0.59 0.52 0.47 0.42 0.35 0.30 0.28 0.29 0.28 0.23 0.20 0.17 0.15 0.12 0.09 0.09 0.07 0.05 0.06 0.05 0.03 0.03 0.02 0.01 0.01 0.00 0.00 0.01 0.01 0.01 0.01 0.01 0.03 0.04 0.05 0.08 0.10 0.12 0.14
0.73 0.66 0.63 0.66 0.65 0.58 0.51 0.46 0.41 0.34 0.30 0.29 0.28 0.25 0.22 0.20 0.15 0.11 0.07 0.07 0.06 0.05 0.04 0.04 0.03 0.02 0.01 0.01 0.00 0.00 0.00 0.01 0.00 0.00 0.01 0.01 0.02 0.04 0.05 0.07 0.09 0.10 0.11
0.87 0.83 0.75 0.70 0.66 0.65 0.59 0.51 0.47 0.39 0.32 0.31 0.27 0.26 0.25 0.21 0.16 0.09 0.08 0.08 0.07 0.05 0.04 0.04 0.02 0.01 0.00 0.00 0.00 0.00 0.00 0.00 0.00 0.00 0.01 0.01 0.02 0.03 0.05 0.06 0.06 0.07 0.07
0.92 0.97 0.94 0.84 0.72 0.65 0.65 0.54 0.48 0.41 0.35 0.32 0.27 0.25 0.24 0.24 0.19 0.14 0.10 0.11 0.09 0.06 0.06 0.05 0.03 0.00 0.00 0.00 0.00 0.00 0.00 0.00 0.00 0.00 0.00 0.00 0.01 0.02 0.04 0.05 0.05 0.06 0.06
1.10 1.04 1.06 1.00 0.87 0.70 0.64 0.58 0.51 0.44 0.38 0.34 0.28 0.24 0.23 0.21 0.17 0.13 0.10 0.08 0.07 0.05 0.06 0.04 0.02 0.01 0.00 0.00 0.00 0.00 0.00 0.00 0.00 0.00 0.00 0.00 0.00 0.01 0.03 0.04 0.04 0.06 0.07
1.27 1.19 1.21 1.12 0.97 0.83 0.71 0.62 0.55 0.51 0.41 0.35 0.33 0.28 0.22 0.17 0.13 0.12 0.10 0.08 0.07 0.05 0.05 0.04 0.02 0.01 0.01 0.00 0.00 0.00 0.00 0.00 0.00 0.00 0.00 0.00 0.00 0.01 0.01 0.02 0.03 0.05 0.08
1.48 1.43 1.44 1.33 1.17 0.97 0.83 0.69 0.57 0.55 0.49 0.44 0.39 0.32 0.27 0.21 0.15 0.11 0.10 0.08 0.07 0.05 0.04 0.03 0.03 0.02 0.01 0.01 0.01 0.01 0.01 0.01 0.01 0.01 0.01 0.01 0.01 0.00 0.00 0.01 0.03 0.06 0.10
1.54 1.61 1.62 1.55 1.45 1.19 1.00 0.88 0.71 0.61 0.57 0.49 0.45 0.39 0.32 0.27 0.21 0.15 0.11 0.09 0.08 0.07 0.06 0.05 0.04 0.03 0.02 0.01 0.01 0.01 0.01 0.01 0.01 0.01 0.01 0.01 0.01 0.01 0.00 0.01 0.03 0.06 0.09
1.67 1.66 1.78 1.78 1.66 1.49 1.27 1.10 0.93 0.76 0.67 0.54 0.47 0.43 0.36 0.31 0.25 0.20 0.14 0.11 0.10 0.09 0.07 0.06 0.05 0.03 0.02 0.02 0.02 0.02 0.01 0.01 0.00 0.01 0.01 0.01 0.01 0.01 0.01 0.01 0.02 0.03 0.06
1.75 1.79 1.83 1.91 1.90 1.85 1.73 1.54 1.31 1.05 0.90 0.76 0.62 0.52 0.43 0.36 0.29 0.23 0.17 0.13 0.12 0.11 0.08 0.06 0.04 0.03 0.02 0.02 0.02 0.01 0.01 0.01 0.00 0.00 0.00 0.00 0.00 0.00 0.00 0.00 0.01 0.02 0.03
1.95 2.03 1.94 2.01 2.13 2.19 2.22 2.04 1.83 1.48 1.17 0.95 0.76 0.65 0.58 0.49 0.40 0.31 0.24 0.19 0.16 0.15 0.13 0.10 0.07 0.05 0.03 0.03 0.03 0.02 0.01 0.01 0.01 0.00 0.00 0.00 0.01 0.01 0.00 0.01 0.01 0.01 0.02
1.95 2.15 2.12 2.05 2.18 2.40 2.23 1.98 1.78 1.56 1.37 1.17 0.97 0.84 0.74 0.65 0.58 0.44 0.33 0.27 0.23 0.20 0.18 0.15 0.14 0.11 0.08 0.07 0.06 0.05 0.02 0.02 0.02 0.01 0.01 0.02 0.01 0.01 0.01 0.01 0.01 0.02 0.02
1.78 2.06 2.08 2.13 2.24 2.40 2.26 2.10 2.03 1.98 1.78 1.57 1.43 1.12 0.88 0.75 0.67 0.59 0.47 0.37 0.32 0.29 0.26 0.24 0.22 0.20 0.16 0.15 0.15 0.14 0.08 0.03 0.02 0.02 0.03 0.03 0.03 0.03 0.02 0.02 0.02 0.03 0.03
1.37 1.76 1.91 1.94 2.07 2.20 2.37 2.61 2.57 2.43 2.11 1.68 1.39 1.27 1.14 1.04 0.93 0.80 0.73 0.59 0.47 0.40 0.34 0.33 0.31 0.28 0.26 0.22 0.22 0.27 0.26 0.15 0.09 0.05 0.04 0.04 0.05 0.05 0.05 0.05 0.05 0.04 0.05
1.04 1.37 1.70 1.88 1.99 2.01 2.10 2.32 2.43 2.27 1.92 1.59 1.40 1.38 1.40 1.31 1.22 1.13 0.99 0.86 0.70 0.57 0.48 0.47 0.44 0.41 0.41 0.38 0.35 0.32 0.33 0.32 0.32 0.22 0.10 0.08 0.08 0.08 0.08 0.09 0.08 0.08 0.08
0.85 1.14 1.47 1.72 1.93 1.92 1.85 1.93 2.13 2.22 2.11 1.94 1.76 1.58 1.47 1.41 1.30 1.25 1.15 1.04 0.91 0.78 0.70 0.67 0.62 0.59 0.57 0.54 0.51 0.47 0.45 0.41 0.42 0.46 0.30 0.16 0.15 0.14 0.15 0.15 0.15 0.16 0.16
0.70 0.86 1.16 1.43 1.72 1.87 1.82 1.84 1.89 1.94 2.04 1.96 1.79 1.70 1.56 1.50 1.41 1.27 1.21 1.15 1.06 0.98 0.90 0.85 0.84 0.78 0.72 0.68 0.65 0.62 0.63 0.60 0.55 0.62 0.59 0.40 0.33 0.27 0.27 0.27 0.27 0.26 0.27

GEFSSE_prec_meanprecacc_144.txt.gz
Total_Precipitation_Accumulation
0.02 0.06 0.18 0.25 0.27 0.18 0.13 0.11 0.09 0.09 0.11 0.13 0.13 0.13 0.12 0.11 0.10 0.10 0.12 0.15 0.22 0.28 0.32 0.36 0.45 0.49 0.47 0.38 0.26 0.15 0.10 0.08 0.06 0.04 0.05 0.07 0.11 0.13 0.12 0.11 0.13 0.19 0.24
0.03 0.07 0.17 0.26 0.28 0.21 0.16 0.12 0.10 0.09 0.10 0.12 0.14 0.14 0.14 0.13 0.14 0.16 0.18 0.20 0.24 0.28 0.34 0.42 0.47 0.47 0.42 0.32 0.18 0.09 0.05 0.02 0.01 0.01 0.01 0.02 0.06 0.08 0.08 0.08 0.11 0.20 0.26
0.05 0.09 0.17 0.27 0.28 0.23 0.19 0.13 0.10 0.09 0.10 0.12 0.15 0.16 0.15 0.14 0.16 0.20 0.23 0.23 0.25 0.26 0.31 0.36 0.36 0.31 0.29 0.22 0.11 0.06 0.03 0.02 0.01 0.01 0.02 0.04 0.07 0.11 0.12 0.10 0.14 0.21 0.24
0.08 0.10 0.17 0.27 0.30 0.26 0.20 0.13 0.11 0.11 0.12 0.14 0.17 0.19 0.21 0.19 0.20 0.23 0.25 0.22 0.22 0.24 0.27 0.23 0.17 0.13 0.14 0.12 0.07 0.04 0.03 0.02 0.02 0.02 0.05 0.07 0.09 0.18 0.18 0.16 0.16 0.17 0.18
0.12 0.14 0.19 0.27 0.32 0.30 0.25 0.18 0.15 0.14 0.15 0.16 0.19 0.22 0.25 0.25 0.24 0.23 0.24 0.19 0.17 0.18 0.15 0.10 0.07 0.06 0.06 0.05 0.05 0.03 0.02 0.01 0.02 0.03 0.05 0.08 0.13 0.25 0.22 0.19 0.19 0.20 0.18
0.16 0.21 0.28 0.33 0.35 0.35 0.30 0.24 0.21 0.21 0.18 0.18 0.19 0.22 0.26 0.28 0.26 0.23 0.19 0.13 0.11 0.10 0.08 0.06 0.05 0.04 0.03 0.02 0.02 0.02 0.02 0.01 0.01 0.03 0.04 0.07 0.12 0.26 0.22 0.18 0.17 0.19 0.19
0.18 0.25 0.35 0.41 0.41 0.39 0.36 0.33 0.29 0.28 0.24 0.22 0.20 0.22 0.26 0.28 0.25 0.20 0.13 0.10 0.08 0.07 0.06 0.05 0.04 0.03 0.02 0.01 0.01 0.01 0.01 0.01 0.01 0.02 0.05 0.07 0.14 0.25 0.21 0.16 0.14 0.15 0.16
0.19 0.30 0.42 0.52 0.50 0.44 0.40 0.38 0.35 0.32 0.30 0.28 0.26 0.27 0.28 0.28 0.24 0.18 0.13 0.10 0.08 0.07 0.07 0.06 0.04 0.02 0.02 0.01 0.01 0.01 0.01 0.01 0.01 0.02 0.04 0.05 0.09 0.14 0.11 0.10 0.10 0.11 0.11
0.26 0.37 0.48 0.60 0.61 0.56 0.51 0.46 0.41 0.36 0.35 0.34 0.33 0.34 0.30 0.26 0.23 0.18 0.14 0.12 0.10 0.08 0.07 0.06 0.04 0.03 0.02 0.02 0.01 0.01 0.00 0.00 0.01 0.01 0.02 0.03 0.05 0.07 0.07 0.09 0.11 0.12 0.13
0.46 0.49 0.56 0.65 0.65 0.59 0.55 0.53 0.49 0.43 0.40 0.40 0.39 0.35 0.32 0.27 0.24 0.21 0.15 0.12 0.10 0.08 0.07 0.06 0.05 0.03 0.03 0.02 0.01 0.00 0.00 0.01 0.01 0.01 0.01 0.01 0.03 0.04 0.05 0.08 0.10 0.12 0.14
0.76 0.68 0.67 0.71 0.71 0.65 0.60 0.56 0.54 0.49 0.44 0.42 0.39 0.35 0.33 0.31 0.26 0.20 0.13 0.10 0.09 0.08 0.07 0.07 0.05 0.03 0.02 0.01 0.00 0.00 0.00 0.01 0.00 0.00 0.01 0.01 0.03 0.04 0.05 0.07 0.09 0.10 0.12
0.91 0.86 0.78 0.74 0.72 0.72 0.67 0.60 0.60 0.53 0.47 0.44 0.38 0.36 0.35 0.32 0.27 0.17 0.14 0.12 0.09 0.08 0.08 0.07 0.05 0.03 0.01 0.00 0.00 0.00 0.00 0.00 0.00 0.00 0.01 0.01 0.02 0.03 0.05 0.06 0.07 0.07 0.07
0.97 1.01 0.97 0.89 0.78 0.72 0.73 0.63 0.58 0.53 0.49 0.45 0.38 0.36 0.35 0.35 0.31 0.25 0.19 0.19 0.15 0.10 0.09 0.08 0.06 0.03 0.01 0.00 0.00 0.00 0.00 0.00 0.00 0.00 0.00 0.00 0.01 0.02 0.04 0.05 0.05 0.06 0.07
1.16 1.08 1.10 1.04 0.92 0.78 0.72 0.67 0.60 0.54 0.50 0.46 0.39 0.34 0.32 0.30 0.27 0.22 0.18 0.17 0.15 0.10 0.09 0.07 0.05 0.03 0.01 0.01 0.00 0.00 0.00 0.00 0.00 0.00 0.00 0.00 0.00 0.02 0.03 0.04 0.05 0.06 0.07
1.33 1.24 1.25 1.16 1.01 0.89 0.79 0.70 0.63 0.60 0.53 0.47 0.44 0.40 0.31 0.24 0.20 0.18 0.15 0.14 0.13 0.11 0.09 0.06 0.04 0.03 0.02 0.01 0.01 0.00 0.00 0.00 0.00 0.00 0.00 0.00 0.00 0.01 0.01 0.02 0.03 0.05 0.09
1.54 1.48 1.48 1.37 1.21 1.02 0.89 0.76 0.65 0.62 0.61 0.59 0.49 0.43 0.40 0.31 0.23 0.19 0.16 0.14 0.12 0.10 0.09 0.07 0.05 0.03 0.03 0.02 0.01 0.01 0.01 0.01 0.01 0.01 0.01 0.01 0.01 0.00 0.01 0.01 0.03 0.07 0.11
1.58 1.65 1.66 1.60 1.49 1.24 1.05 0.94 0.78 0.69 0.66 0.64 0.59 0.48 0.42 0.37 0.31 0.26 0.21 0.16 0.13 0.12 0.11 0.11 0.09 0.05 0.03 0.02 0.01 0.01 0.01 0.01 0.01 0.01 0.01 0.01 0.01 0.01 0.01 0.01 0.03 0.07 0.09
1.70 1.69 1.81 1.82 1.72 1.55 1.33 1.17 1.00 0.84 0.76 0.66 0.62 0.55 0.45 0.41 0.36 0.33 0.27 0.20 0.17 0.15 0.12 0.12 0.11 0.07 0.04 0.03 0.02 0.02 0.01 0.01 0.00 0.01 0.01 0.01 0.01 0.01 0.01 0.01 0.02 0.03 0.06
1.78 1.82 1.87 1.98 1.97 1.92 1.80 1.62 1.38 1.13 0.99 0.88 0.76 0.66 0.55 0.46 0.40 0.38 0.32 0.25 0.21 0.18 0.14 0.10 0.09 0.08 0.05 0.03 0.03 0.02 0.01 0.01 0.01 0.00 0.00 0.00 0.00 0.00 0.00 0.00 0.01 0.02 0.03
2.00 2.08 1.99 2.12 2.24 2.29 2.31 2.14 1.92 1.57 1.27 1.06 0.89 0.79 0.71 0.60 0.49 0.42 0.38 0.32 0.27 0.24 0.21 0.17 0.12 0.09 0.06 0.05 0.05 0.03 0.02 0.01 0.01 0.00 0.00 0.00 0.01 0.01 0.00 0.01 0.01 0.01 0.02
2.07 2.24 2.19 2.16 2.33 2.54 2.37 2.13 1.90 1.66 1.47 1.28 1.11 0.98 0.87 0.76 0.67 0.54 0.44 0.39 0.34 0.30 0.27 0.24 0.22 0.19 0.14 0.12 0.11 0.08 0.04 0.03 0.02 0.01 0.02 0.02 0.02 0.01 0.01 0.01 0.01 0.02 0.03
1.89 2.15 2.16 2.23 2.36 2.53 2.40 2.24 2.16 2.09 1.88 1.67 1.52 1.24 1.01 0.87 0.77 0.69 0.58 0.48 0.43 0.40 0.37 0.35 0.32 0.28 0.24 0.22 0.22 0.21 0.12 0.06 0.03 0.03 0.03 0.03 0.03 0.03 0.02 0.02 0.02 0.03 0.03
1.47 1.85 2.00 2.06 2.20 2.31 2.47 2.71 2.68 2.54 2.20 1.77 1.47 1.35 1.24 1.17 1.05 0.89 0.84 0.73 0.59 0.51 0.45 0.44 0.41 0.37 0.33 0.29 0.28 0.34 0.31 0.18 0.10 0.06 0.05 0.05 0.05 0.05 0.05 0.05 0.05 0.05 0.05
1.14 1.47 1.81 1.99 2.10 2.11 2.19 2.42 2.53 2.38 2.02 1.67 1.47 1.44 1.46 1.40 1.34 1.26 1.10 0.99 0.86 0.72 0.60 0.58 0.55 0.51 0.50 0.45 0.40 0.36 0.37 0.35 0.34 0.23 0.11 0.08 0.08 0.08 0.09 0.09 0.08 0.08 0.09
0.95 1.25 1.57 1.81 2.01 2.02 1.93 2.01 2.23 2.32 2.20 2.02 1.84 1.65 1.52 1.48 1.41 1.38 1.28 1.16 1.04 0.94 0.86 0.80 0.73 0.70 0.67 0.63 0.57 0.51 0.48 0.44 0.44 0.48 0.32 0.17 0.15 0.14 0.15 0.15 0.15 0.16 0.17
0.80 0.96 1.25 1.53 1.83 1.99 1.92 1.92 1.99 2.04 2.12 2.03 1.86 1.78 1.62 1.56 1.50 1.37 1.33 1.26 1.16 1.10 1.03 1.00 0.98 0.91 0.85 0.79 0.74 0.68 0.68 0.65 0.58 0.64 0.61 0.41 0.34 0.28 0.27 0.28 0.27 0.27 0.27

GEFSSE_prec_meanprecacc_150.txt.gz
Total_Precipitation_Accumulation
0.02 0.07 0.19 0.26 0.28 0.21 0.16 0.14 0.12 0.12 0.13 0.14 0.14 0.14 0.13 0.12 0.11 0.11 0.12 0.15 0.23 0.29 0.34 0.37 0.46 0.50 0.48 0.38 0.26 0.15 0.10 0.08 0.06 0.04 0.05 0.07 0.11 0.13 0.12 0.12 0.15 0.20 0.25
0.03 0.07 0.18 0.27 0.29 0.23 0.19 0.16 0.14 0.14 0.13 0.13 0.16 0.16 0.15 0.14 0.15 0.18 0.18 0.21 0.26 0.31 0.36 0.43 0.48 0.48 0.43 0.33 0.19 0.10 0.05 0.02 0.01 0.01 0.01 0.02 0.06 0.08 0.08 0.08 0.11 0.21 0.26
0.06 0.10 0.18 0.28 0.30 0.25 0.21 0.17 0.13 0.14 0.15 0.16 0.18 0.18 0.17 0.16 0.18 0.22 0.25 0.25 0.27 0.28 0.33 0.38 0.37 0.34 0.31 0.23 0.11 0.06 0.03 0.02 0.01 0.01 0.02 0.04 0.07 0.11 0.12 0.10 0.14 0.21 0.25
0.08 0.11 0.19 0.28 0.31 0.28 0.23 0.16 0.14 0.16 0.18 0.21 0.22 0.23 0.25 0.22 0.23 0.25 0.28 0.25 0.24 0.26 0.29 0.26 0.18 0.15 0.15 0.12 0.08 0.05 0.03 0.02 0.02 0.03 0.06 0.08 0.10 0.18 0.19 0.16 0.17 0.17 0.18
0.12 0.14 0.20 0.29 0.33 0.32 0.27 0.21 0.18 0.19 0.21 0.22 0.25 0.29 0.31 0.31 0.30 0.27 0.27 0.22 0.19 0.20 0.18 0.12 0.09 0.07 0.07 0.06 0.05 0.04 0.02 0.02 0.02 0.03 0.05 0.09 0.14 0.26 0.23 0.19 0.19 0.20 0.18
0.17 0.22 0.29 0.34 0.37 0.38 0.33 0.27 0.24 0.25 0.24 0.25 0.25 0.28 0.33 0.36 0.37 0.33 0.26 0.17 0.14 0.12 0.11 0.08 0.06 0.05 0.04 0.03 0.02 0.02 0.02 0.01 0.01 0.03 0.05 0.07 0.13 0.26 0.22 0.18 0.18 0.19 0.19
0.19 0.26 0.36 0.43 0.44 0.42 0.39 0.36 0.34 0.32 0.30 0.28 0.27 0.29 0.33 0.36 0.34 0.29 0.20 0.14 0.10 0.10 0.09 0.07 0.06 0.05 0.03 0.02 0.02 0.02 0.01 0.01 0.01 0.03 0.05 0.07 0.14 0.25 0.21 0.16 0.15 0.15 0.16
0.19 0.32 0.43 0.52 0.51 0.47 0.42 0.41 0.39 0.37 0.36 0.34 0.32 0.34 0.35 0.35 0.32 0.25 0.19 0.14 0.11 0.11 0.10 0.08 0.06 0.04 0.04 0.03 0.02 0.01 0.01 0.01 0.01 0.02 0.04 0.05 0.10 0.14 0.12 0.10 0.10 0.11 0.11
0.27 0.39 0.50 0.62 0.62 0.58 0.54 0.48 0.43 0.41 0.41 0.42 0.42 0.42 0.38 0.32 0.30 0.26 0.21 0.16 0.13 0.11 0.11 0.08 0.06 0.04 0.04 0.03 0.03 0.02 0.01 0.01 0.01 0.02 0.02 0.03 0.05 0.08 0.08 0.09 0.11 0.12 0.13
0.47 0.51 0.59 0.68 0.68 0.62 0.58 0.55 0.51 0.46 0.44 0.46 0.47 0.44 0.39 0.34 0.31 0.27 0.21 0.17 0.13 0.11 0.11 0.09 0.07 0.05 0.04 0.03 0.02 0.01 0.01 0.01 0.01 0.01 0.01 0.01 0.03 0.05 0.06 0.08 0.10 0.12 0.14
0.78 0.71 0.70 0.75 0.75 0.69 0.64 0.60 0.58 0.53 0.48 0.47 0.46 0.41 0.39 0.39 0.35 0.27 0.18 0.14 0.13 0.11 0.10 0.09 0.07 0.05 0.03 0.02 0.02 0.02 0.02 0.02 0.00 0.00 0.01 0.01 0.03 0.04 0.05 0.08 0.09 0.11 0.12
0.93 0.89 0.82 0.79 0.77 0.77 0.72 0.66 0.66 0.59 0.51 0.48 0.42 0.41 0.40 0.40 0.36 0.26 0.21 0.16 0.14 0.11 0.11 0.11 0.09 0.06 0.04 0.02 0.01 0.01 0.01 0.01 0.00 0.00 0.01 0.01 0.02 0.04 0.05 0.06 0.07 0.07 0.08
0.99 1.04 1.01 0.94 0.83 0.77 0.79 0.70 0.65 0.61 0.54 0.49 0.42 0.41 0.42 0.46 0.44 0.39 0.31 0.26 0.23 0.16 0.14 0.13 0.11 0.06 0.04 0.02 0.01 0.01 0.01 0.01 0.00 0.00 0.00 0.00 0.01 0.03 0.04 0.05 0.05 0.06 0.07
1.19 1.12 1.14 1.09 0.98 0.83 0.79 0.73 0.66 0.62 0.57 0.50 0.42 0.39 0.39 0.40 0.39 0.35 0.28 0.24 0.23 0.17 0.15 0.13 0.10 0.06 0.05 0.03 0.01 0.00 0.01 0.01 0.00 0.00 0.00 0.00 0.01 0.02 0.03 0.04 0.05 0.06 0.07
1.36 1.27 1.29 1.20 1.06 0.94 0.85 0.76 0.69 0.67 0.59 0.52 0.49 0.45 0.37 0.30 0.28 0.29 0.24 0.23 0.21 0.16 0.13 0.11 0.08 0.07 0.06 0.04 0.03 0.01 0.00 0.00 0.00 0.00 0.00 0.00 0.00 0.01 0.02 0.03 0.04 0.06 0.09
1.58 1.53 1.52 1.42 1.25 1.06 0.94 0.80 0.70 0.69 0.67 0.65 0.56 0.47 0.45 0.37 0.29 0.28 0.25 0.22 0.20 0.17 0.14 0.10 0.07 0.07 0.07 0.06 0.04 0.03 0.01 0.01 0.01 0.01 0.01 0.01 0.01 0.01 0.01 0.02 0.04 0.07 0.11
1.62 1.69 1.71 1.66 1.54 1.28 1.09 0.98 0.82 0.75 0.74 0.70 0.64 0.53 0.49 0.45 0.38 0.34 0.30 0.24 0.21 0.20 0.19 0.18 0.14 0.10 0.08 0.06 0.05 0.04 0.03 0.02 0.01 0.01 0.01 0.01 0.01 0.01 0.01 0.01 0.04 0.07 0.10
1.75 1.72 1.85 1.86 1.76 1.58 1.36 1.20 1.03 0.89 0.82 0.72 0.68 0.62 0.53 0.48 0.43 0.41 0.35 0.29 0.24 0.23 0.21 0.21 0.20 0.16 0.10 0.07 0.06 0.05 0.04 0.02 0.01 0.01 0.01 0.01 0.01 0.01 0.01 0.01 0.02 0.04 0.07
1.83 1.86 1.91 2.01 2.00 1.95 1.83 1.66 1.42 1.19 1.05 0.95 0.83 0.73 0.63 0.54 0.47 0.45 0.40 0.35 0.33 0.27 0.22 0.18 0.18 0.16 0.13 0.10 0.07 0.06 0.04 0.03 0.02 0.01 0.01 0.01 0.01 0.00 0.00 0.01 0.01 0.02 0.04
2.05 2.12 2.04 2.14 2.26 2.32 2.35 2.18 1.97 1.63 1.33 1.13 0.97 0.88 0.79 0.68 0.58 0.51 0.46 0.40 0.38 0.38 0.31 0.25 0.21 0.18 0.15 0.13 0.12 0.09 0.07 0.04 0.03 0.02 0.01 0.01 0.02 0.01 0.01 0.01 0.01 0.01 0.02
2.12 2.29 2.25 2.20 2.36 2.57 2.40 2.16 1.94 1.71 1.53 1.35 1.19 1.07 0.97 0.87 0.77 0.64 0.54 0.49 0.45 0.42 0.38 0.33 0.32 0.29 0.25 0.23 0.22 0.18 0.12 0.08 0.05 0.03 0.03 0.02 0.02 0.02 0.02 0.01 0.01 0.02 0.03
1.95 2.21 2.22 2.27 2.41 2.57 2.44 2.29 2.22 2.14 1.94 1.75 1.61 1.33 1.11 0.98 0.89 0.80 0.68 0.58 0.53 0.51 0.48 0.44 0.41 0.39 0.36 0.36 0.37 0.36 0.25 0.16 0.09 0.06 0.05 0.04 0.03 0.04 0.03 0.02 0.02 0.03 0.03
1.52 1.90 2.05 2.12 2.28 2.38 2.52 2.76 2.74 2.60 2.28 1.85 1.57 1.46 1.33 1.27 1.16 1.01 0.95 0.85 0.69 0.61 0.57 0.54 0.49 0.46 0.43 0.40 0.40 0.48 0.45 0.31 0.21 0.14 0.09 0.07 0.06 0.06 0.06 0.06 0.05 0.05 0.05
1.20 1.54 1.87 2.07 2.20 2.21 2.27 2.48 2.59 2.44 2.09 1.75 1.56 1.55 1.58 1.50 1.45 1.39 1.24 1.15 1.01 0.84 0.72 0.69 0.64 0.60 0.59 0.55 0.51 0.46 0.45 0.42 0.42 0.32 0.19 0.13 0.12 0.10 0.10 0.09 0.08 0.08 0.09
1.01 1.33 1.65 1.88 2.10 2.12 2.03 2.10 2.30 2.39 2.27 2.10 1.93 1.77 1.66 1.61 1.53 1.50 1.44 1.34 1.22 1.10 0.99 0.93 0.85 0.81 0.77 0.72 0.67 0.60 0.57 0.52 0.51 0.54 0.38 0.22 0.19 0.18 0.17 0.16 0.16 0.16 0.17
0.83 1.00 1.29 1.58 1.90 2.07 2.01 2.02 2.08 2.12 2.20 2.12 1.96 1.91 1.78 1.74 1.65 1.50 1.47 1.43 1.36 1.29 1.20 1.16 1.13 1.03 0.94 0.87 0.82 0.77 0.76 0.72 0.64 0.69 0.65 0.46 0.38 0.31 0.30 0.29 0.29 0.28 0.28

GEFSSE_prec_meanprecacc_156.txt.gz
Total_Precipitation_Accumulation
0.03 0.07 0.20 0.27 0.29 0.22 0.18 0.15 0.13 0.13 0.13 0.14 0.15 0.14 0.13 0.12 0.11 0.11 0.12 0.15 0.23 0.30 0.35 0.38 0.46 0.50 0.48 0.39 0.27 0.16 0.11 0.09 0.07 0.05 0.05 0.08 0.11 0.13 0.13 0.13 0.15 0.21 0.26
0.04 0.08 0.19 0.28 0.30 0.24 0.20 0.17 0.15 0.15 0.14 0.14 0.17 0.17 0.15 0.14 0.16 0.18 0.19 0.21 0.27 0.32 0.38 0.45 0.49 0.49 0.44 0.33 0.19 0.10 0.05 0.03 0.01 0.01 0.01 0.03 0.06 0.09 0.10 0.09 0.11 0.21 0.27
0.06 0.10 0.19 0.30 0.31 0.26 0.22 0.18 0.15 0.15 0.17 0.17 0.19 0.19 0.18 0.17 0.18 0.23 0.26 0.26 0.28 0.29 0.35 0.42 0.40 0.35 0.32 0.23 0.12 0.06 0.04 0.02 0.01 0.01 0.02 0.05 0.07 0.12 0.12 0.11 0.15 0.21 0.26
0.09 0.11 0.19 0.29 0.32 0.28 0.24 0.17 0.16 0.18 0.20 0.22 0.23 0.24 0.26 0.24 0.24 0.27 0.29 0.26 0.25 0.27 0.30 0.28 0.22 0.17 0.16 0.13 0.08 0.05 0.03 0.02 0.02 0.03 0.06 0.08 0.10 0.19 0.19 0.17 0.17 0.18 0.19
0.13 0.15 0.21 0.29 0.35 0.34 0.28 0.22 0.19 0.21 0.23 0.24 0.27 0.31 0.33 0.33 0.32 0.30 0.29 0.25 0.22 0.21 0.19 0.14 0.11 0.10 0.09 0.07 0.06 0.04 0.03 0.02 0.02 0.03 0.06 0.09 0.14 0.26 0.23 0.19 0.20 0.20 0.19
0.18 0.22 0.30 0.35 0.39 0.40 0.35 0.29 0.26 0.27 0.26 0.28 0.28 0.32 0.36 0.39 0.39 0.36 0.29 0.20 0.15 0.13 0.12 0.09 0.08 0.08 0.06 0.05 0.04 0.03 0.02 0.01 0.01 0.03 0.05 0.08 0.13 0.27 0.22 0.18 0.18 0.19 0.19
0.20 0.27 0.37 0.44 0.45 0.44 0.41 0.38 0.36 0.35 0.33 0.31 0.30 0.33 0.37 0.39 0.38 0.34 0.23 0.16 0.12 0.11 0.11 0.08 0.07 0.07 0.05 0.04 0.03 0.03 0.02 0.01 0.01 0.03 0.05 0.08 0.15 0.26 0.22 0.17 0.16 0.16 0.16
0.21 0.33 0.44 0.54 0.52 0.48 0.44 0.43 0.42 0.40 0.40 0.38 0.36 0.37 0.38 0.39 0.36 0.29 0.22 0.17 0.13 0.12 0.12 0.10 0.07 0.05 0.05 0.04 0.03 0.02 0.03 0.01 0.01 0.02 0.04 0.05 0.10 0.15 0.12 0.10 0.10 0.12 0.12
0.29 0.40 0.51 0.63 0.64 0.60 0.55 0.51 0.46 0.44 0.44 0.45 0.46 0.46 0.40 0.35 0.33 0.29 0.24 0.19 0.15 0.13 0.13 0.11 0.09 0.07 0.06 0.04 0.04 0.03 0.02 0.01 0.02 0.02 0.02 0.03 0.05 0.08 0.08 0.10 0.11 0.13 0.13
0.49 0.53 0.60 0.69 0.70 0.63 0.59 0.57 0.54 0.49 0.46 0.48 0.50 0.47 0.42 0.36 0.33 0.30 0.23 0.20 0.16 0.13 0.13 0.11 0.10 0.08 0.06 0.04 0.03 0.02 0.02 0.02 0.01 0.01 0.01 0.01 0.03 0.05 0.07 0.09 0.10 0.12 0.14
0.79 0.74 0.73 0.77 0.77 0.70 0.65 0.62 0.61 0.56 0.51 0.49 0.48 0.43 0.41 0.41 0.36 0.29 0.20 0.16 0.15 0.13 0.12 0.12 0.10 0.08 0.05 0.04 0.03 0.03 0.03 0.03 0.02 0.01 0.01 0.01 0.03 0.05 0.06 0.09 0.09 0.11 0.12
0.93 0.90 0.84 0.81 0.79 0.78 0.74 0.68 0.69 0.63 0.55 0.51 0.43 0.42 0.42 0.41 0.37 0.27 0.22 0.18 0.16 0.13 0.13 0.15 0.14 0.10 0.07 0.04 0.03 0.03 0.03 0.03 0.02 0.01 0.01 0.01 0.03 0.05 0.06 0.07 0.07 0.08 0.08
0.99 1.05 1.02 0.96 0.86 0.80 0.81 0.73 0.70 0.66 0.60 0.52 0.45 0.43 0.45 0.48 0.46 0.41 0.32 0.28 0.26 0.18 0.17 0.17 0.17 0.11 0.07 0.05 0.03 0.02 0.02 0.03 0.02 0.02 0.01 0.01 0.01 0.04 0.05 0.06 0.06 0.07 0.07
1.19 1.13 1.15 1.11 1.00 0.86 0.82 0.78 0.73 0.69 0.65 0.55 0.46 0.42 0.42 0.42 0.41 0.37 0.30 0.27 0.26 0.19 0.18 0.16 0.14 0.10 0.08 0.06 0.03 0.02 0.02 0.02 0.01 0.01 0.01 0.00 0.01 0.02 0.04 0.05 0.05 0.06 0.08
1.36 1.27 1.29 1.21 1.07 0.97 0.88 0.80 0.76 0.75 0.70 0.59 0.54 0.49 0.40 0.33 0.30 0.30 0.27 0.26 0.24 0.19 0.16 0.16 0.12 0.10 0.08 0.07 0.05 0.03 0.02 0.02 0.01 0.00 0.00 0.00 0.01 0.01 0.02 0.03 0.04 0.06 0.09
1.58 1.53 1.53 1.43 1.26 1.08 0.97 0.85 0.76 0.76 0.77 0.76 0.62 0.52 0.51 0.41 0.32 0.30 0.28 0.26 0.23 0.20 0.18 0.16 0.14 0.12 0.11 0.08 0.06 0.05 0.04 0.03 0.02 0.01 0.01 0.01 0.01 0.01 0.01 0.02 0.04 0.08 0.11
1.62 1.69 1.72 1.67 1.55 1.31 1.12 1.04 0.88 0.82 0.82 0.78 0.69 0.58 0.55 0.50 0.43 0.39 0.34 0.29 0.25 0.23 0.23 0.24 0.22 0.17 0.13 0.10 0.07 0.06 0.07 0.06 0.05 0.03 0.02 0.01 0.01 0.01 0.01 0.02 0.04 0.07 0.10
1.75 1.72 1.86 1.89 1.78 1.61 1.39 1.26 1.10 0.96 0.89 0.78 0.72 0.66 0.58 0.54 0.49 0.47 0.41 0.35 0.31 0.30 0.27 0.26 0.26 0.23 0.17 0.13 0.10 0.09 0.08 0.07 0.06 0.06 0.04 0.03 0.02 0.01 0.01 0.01 0.03 0.04 0.07
1.83 1.86 1.92 2.05 2.04 1.99 1.86 1.71 1.49 1.26 1.12 1.00 0.87 0.77 0.67 0.59 0.53 0.51 0.46 0.41 0.41 0.37 0.29 0.24 0.24 0.23 0.20 0.16 0.13 0.11 0.09 0.08 0.08 0.07 0.05 0.04 0.03 0.02 0.01 0.01 0.01 0.02 0.04
2.05 2.12 2.05 2.17 2.30 2.36 2.38 2.23 2.05 1.71 1.41 1.20 1.02 0.92 0.84 0.75 0.65 0.58 0.55 0.49 0.46 0.48 0.44 0.35 0.27 0.24 0.21 0.19 0.18 0.15 0.12 0.10 0.10 0.09 0.07 0.05 0.04 0.04 0.02 0.02 0.02 0.01 0.02
2.13 2.29 2.26 2.21 2.38 2.59 2.43 2.21 2.00 1.78 1.60 1.41 1.24 1.12 1.03 0.94 0.85 0.74 0.65 0.62 0.56 0.52 0.50 0.49 0.44 0.37 0.32 0.31 0.32 0.26 0.19 0.15 0.13 0.11 0.10 0.10 0.08 0.06 0.04 0.03 0.02 0.02 0.03
1.96 2.22 2.23 2.29 2.42 2.59 2.47 2.33 2.27 2.20 1.99 1.79 1.64 1.37 1.17 1.06 0.97 0.92 0.81 0.72 0.67 0.62 0.59 0.58 0.56 0.51 0.45 0.45 0.48 0.48 0.36 0.25 0.16 0.12 0.12 0.11 0.11 0.10 0.08 0.05 0.04 0.04 0.04
1.53 1.90 2.06 2.13 2.29 2.41 2.55 2.80 2.78 2.66 2.34 1.90 1.61 1.50 1.39 1.35 1.25 1.12 1.09 1.00 0.83 0.73 0.66 0.64 0.62 0.58 0.53 0.49 0.48 0.58 0.55 0.39 0.28 0.20 0.16 0.13 0.13 0.14 0.12 0.10 0.07 0.06 0.06
1.20 1.54 1.88 2.08 2.22 2.25 2.32 2.54 2.63 2.49 2.15 1.80 1.59 1.59 1.63 1.58 1.55 1.48 1.34 1.28 1.15 0.98 0.83 0.79 0.77 0.74 0.72 0.67 0.60 0.54 0.53 0.49 0.48 0.37 0.23 0.18 0.16 0.15 0.15 0.14 0.12 0.10 0.10
1.01 1.34 1.65 1.89 2.12 2.15 2.08 2.17 2.38 2.45 2.32 2.15 1.96 1.80 1.73 1.69 1.59 1.57 1.53 1.44 1.35 1.25 1.14 1.06 0.99 0.95 0.91 0.85 0.77 0.68 0.64 0.57 0.57 0.60 0.42 0.25 0.23 0.21 0.21 0.21 0.19 0.19 0.19
0.85 1.01 1.31 1.60 1.92 2.10 2.05 2.07 2.15 2.19 2.26 2.16 1.99 1.94 1.85 1.82 1.72 1.57 1.55 1.53 1.46 1.43 1.37 1.33 1.28 1.18 1.10 1.02 0.94 0.87 0.85 0.79 0.70 0.75 0.70 0.49 0.42 0.34 0.33 0.33 0.32 0.30 0.30

GEFSSE_prec_meanprecacc_162.txt.gz
Total_Precipitation_Accumulation
0.04 0.08 0.22 0.29 0.31 0.24 0.20 0.17 0.14 0.14 0.14 0.15 0.15 0.15 0.14 0.13 0.12 0.12 0.13 0.16 0.24 0.31 0.36 0.40 0.48 0.51 0.50 0.40 0.29 0.17 0.11 0.10 0.07 0.05 0.06 0.08 0.11 0.14 0.13 0.14 0.16 0.22 0.26
0.04 0.08 0.21 0.31 0.32 0.26 0.22 0.19 0.16 0.16 0.15 0.14 0.17 0.18 0.16 0.15 0.17 0.20 0.20 0.22 0.27 0.33 0.39 0.46 0.50 0.50 0.46 0.34 0.20 0.11 0.05 0.03 0.01 0.01 0.01 0.03 0.06 0.10 0.11 0.10 0.12 0.22 0.28
0.07 0.11 0.21 0.32 0.33 0.28 0.24 0.20 0.17 0.17 0.18 0.19 0.20 0.20 0.19 0.18 0.19 0.25 0.28 0.29 0.30 0.31 0.37 0.43 0.42 0.37 0.35 0.24 0.13 0.07 0.04 0.02 0.01 0.01 0.02 0.05 0.07 0.13 0.13 0.11 0.16 0.23 0.27
0.10 0.12 0.20 0.31 0.35 0.31 0.26 0.20 0.19 0.21 0.22 0.24 0.25 0.26 0.28 0.26 0.26 0.28 0.31 0.30 0.28 0.29 0.32 0.30 0.24 0.20 0.18 0.14 0.10 0.06 0.04 0.03 0.02 0.03 0.06 0.08 0.10 0.19 0.20 0.17 0.18 0.19 0.20
0.15 0.16 0.22 0.31 0.38 0.37 0.31 0.25 0.22 0.24 0.26 0.28 0.30 0.34 0.36 0.36 0.35 0.32 0.32 0.28 0.25 0.23 0.20 0.15 0.12 0.12 0.11 0.09 0.08 0.05 0.03 0.02 0.02 0.03 0.06 0.09 0.14 0.27 0.24 0.20 0.20 0.21 0.20
0.18 0.23 0.31 0.38 0.42 0.43 0.38 0.31 0.29 0.30 0.30 0.32 0.32 0.36 0.40 0.44 0.44 0.40 0.33 0.23 0.18 0.15 0.13 0.11 0.09 0.09 0.07 0.06 0.05 0.04 0.03 0.01 0.01 0.03 0.05 0.08 0.14 0.27 0.23 0.19 0.19 0.20 0.20
0.20 0.28 0.38 0.46 0.48 0.47 0.45 0.41 0.39 0.38 0.36 0.35 0.34 0.38 0.42 0.44 0.42 0.38 0.28 0.20 0.15 0.14 0.13 0.10 0.09 0.08 0.07 0.05 0.05 0.04 0.03 0.01 0.01 0.03 0.05 0.08 0.15 0.27 0.22 0.17 0.16 0.16 0.16
0.21 0.33 0.45 0.55 0.55 0.51 0.48 0.47 0.46 0.44 0.44 0.42 0.40 0.41 0.43 0.44 0.41 0.35 0.27 0.20 0.16 0.15 0.15 0.13 0.10 0.08 0.08 0.07 0.05 0.04 0.03 0.01 0.01 0.02 0.04 0.05 0.10 0.16 0.13 0.11 0.11 0.12 0.12
0.30 0.42 0.53 0.64 0.65 0.62 0.57 0.53 0.49 0.48 0.49 0.50 0.50 0.50 0.44 0.39 0.37 0.34 0.29 0.23 0.18 0.16 0.16 0.14 0.12 0.10 0.10 0.08 0.07 0.05 0.03 0.02 0.02 0.02 0.02 0.03 0.05 0.09 0.09 0.10 0.12 0.13 0.14
0.51 0.56 0.63 0.73 0.72 0.65 0.61 0.58 0.55 0.50 0.49 0.52 0.55 0.51 0.46 0.40 0.37 0.34 0.27 0.23 0.19 0.16 0.15 0.13 0.13 0.12 0.11 0.09 0.07 0.04 0.03 0.02 0.02 0.01 0.01 0.01 0.03 0.06 0.07 0.10 0.11 0.12 0.14
0.80 0.75 0.76 0.81 0.82 0.74 0.67 0.63 0.62 0.57 0.52 0.52 0.51 0.46 0.45 0.45 0.40 0.32 0.22 0.18 0.17 0.16 0.15 0.15 0.14 0.12 0.09 0.08 0.06 0.07 0.06 0.04 0.02 0.02 0.01 0.01 0.03 0.05 0.07 0.10 0.10 0.11 0.12
0.94 0.91 0.86 0.84 0.83 0.83 0.78 0.71 0.70 0.63 0.56 0.53 0.46 0.45 0.45 0.44 0.40 0.30 0.24 0.20 0.18 0.16 0.16 0.18 0.18 0.15 0.10 0.07 0.06 0.06 0.06 0.05 0.04 0.02 0.01 0.02 0.03 0.06 0.07 0.09 0.08 0.08 0.08
1.00 1.06 1.03 0.97 0.88 0.83 0.85 0.77 0.72 0.67 0.60 0.54 0.47 0.47 0.49 0.53 0.50 0.44 0.34 0.30 0.28 0.21 0.20 0.19 0.20 0.14 0.09 0.07 0.05 0.04 0.04 0.05 0.04 0.03 0.02 0.01 0.02 0.05 0.07 0.08 0.08 0.08 0.08
1.19 1.13 1.15 1.11 1.02 0.88 0.85 0.81 0.76 0.71 0.66 0.57 0.48 0.46 0.46 0.46 0.45 0.41 0.33 0.29 0.27 0.21 0.20 0.18 0.16 0.12 0.10 0.08 0.06 0.05 0.04 0.04 0.04 0.04 0.03 0.01 0.01 0.03 0.05 0.07 0.07 0.07 0.08
1.36 1.27 1.29 1.21 1.08 0.98 0.91 0.83 0.78 0.77 0.72 0.62 0.58 0.54 0.45 0.37 0.33 0.34 0.31 0.30 0.27 0.22 0.19 0.18 0.15 0.13 0.12 0.10 0.08 0.06 0.04 0.03 0.02 0.02 0.03 0.03 0.02 0.02 0.03 0.05 0.06 0.07 0.10
1.58 1.53 1.53 1.43 1.26 1.09 0.98 0.87 0.78 0.78 0.78 0.78 0.66 0.57 0.56 0.46 0.36 0.34 0.33 0.30 0.28 0.24 0.21 0.19 0.16 0.16 0.15 0.13 0.10 0.08 0.06 0.05 0.04 0.03 0.03 0.03 0.03 0.02 0.02 0.04 0.06 0.09 0.13
1.62 1.69 1.72 1.67 1.55 1.31 1.13 1.04 0.89 0.84 0.83 0.83 0.74 0.64 0.61 0.56 0.47 0.42 0.39 0.33 0.29 0.28 0.28 0.28 0.26 0.21 0.18 0.14 0.11 0.11 0.10 0.08 0.07 0.05 0.04 0.03 0.02 0.02 0.02 0.03 0.06 0.09 0.12
1.75 1.72 1.86 1.89 1.79 1.61 1.39 1.26 1.10 0.97 0.90 0.83 0.78 0.72 0.65 0.61 0.54 0.51 0.45 0.39 0.36 0.35 0.32 0.32 0.32 0.29 0.23 0.19 0.15 0.14 0.13 0.10 0.08 0.08 0.07 0.05 0.04 0.03 0.02 0.02 0.04 0.07 0.09
1.83 1.86 1.92 2.05 2.04 1.99 1.87 1.72 1.50 1.27 1.13 1.04 0.93 0.83 0.75 0.68 0.60 0.56 0.49 0.45 0.46 0.44 0.36 0.30 0.30 0.28 0.25 0.21 0.19 0.17 0.15 0.13 0.11 0.10 0.08 0.07 0.06 0.05 0.04 0.03 0.03 0.05 0.07
2.05 2.12 2.05 2.17 2.30 2.36 2.38 2.23 2.05 1.72 1.43 1.24 1.08 0.99 0.91 0.83 0.73 0.64 0.58 0.52 0.52 0.55 0.50 0.42 0.35 0.32 0.29 0.25 0.25 0.21 0.18 0.15 0.13 0.12 0.10 0.08 0.07 0.06 0.06 0.06 0.05 0.04 0.05
2.13 2.29 2.26 2.22 2.38 2.59 2.43 2.21 2.01 1.80 1.63 1.45 1.29 1.17 1.09 0.99 0.90 0.79 0.69 0.66 0.61 0.58 0.57 0.56 0.53 0.49 0.45 0.43 0.41 0.34 0.25 0.21 0.17 0.14 0.13 0.12 0.10 0.09 0.08 0.07 0.07 0.06 0.06
1.96 2.22 2.24 2.30 2.43 2.59 2.47 2.33 2.29 2.22 2.01 1.82 1.68 1.41 1.22 1.11 1.01 0.95 0.85 0.76 0.73 0.70 0.67 0.65 0.65 0.62 0.58 0.61 0.64 0.63 0.49 0.36 0.25 0.19 0.18 0.17 0.16 0.15 0.14 0.11 0.10 0.09 0.08
1.53 1.91 2.07 2.14 2.29 2.41 2.55 2.80 2.80 2.70 2.36 1.92 1.63 1.52 1.42 1.39 1.29 1.15 1.12 1.04 0.89 0.82 0.76 0.72 0.70 0.69 0.67 0.64 0.64 0.73 0.68 0.51 0.38 0.29 0.24 0.22 0.21 0.21 0.20 0.17 0.14 0.12 0.11
1.21 1.55 1.89 2.09 2.23 2.25 2.32 2.55 2.65 2.52 2.17 1.83 1.62 1.62 1.67 1.62 1.58 1.52 1.39 1.33 1.20 1.05 0.92 0.88 0.85 0.84 0.86 0.82 0.77 0.70 0.65 0.58 0.58 0.47 0.33 0.27 0.25 0.24 0.25 0.24 0.19 0.16 0.16
1.02 1.35 1.66 1.90 2.12 2.16 2.09 2.19 2.40 2.47 2.35 2.18 2.00 1.86 1.79 1.73 1.63 1.61 1.57 1.50 1.40 1.29 1.19 1.14 1.07 1.04 1.03 0.99 0.92 0.85 0.81 0.71 0.66 0.67 0.49 0.33 0.31 0.30 0.31 0.31 0.30 0.28 0.27
0.86 1.02 1.32 1.61 1.92 2.10 2.06 2.09 2.17 2.22 2.28 2.20 2.05 2.01 1.90 1.86 1.74 1.59 1.57 1.56 1.50 1.47 1.41 1.38 1.35 1.25 1.18 1.13 1.07 1.01 1.00 0.95 0.81 0.82 0.76 0.55 0.48 0.41 0.40 0.41 0.42 0.42 0.41

GEFSSE_prec_meanprecacc_168.txt.gz
Total_Precipitation_Accumulation
0.04 0.08 0.23 0.31 0.34 0.28 0.24 0.21 0.17 0.15 0.15 0.16 0.17 0.16 0.16 0.15 0.15 0.14 0.15 0.18 0.26 0.32 0.38 0.42 0.49 0.52 0.50 0.42 0.31 0.19 0.13 0.11 0.08 0.06 0.06 0.08 0.12 0.14 0.14 0.14 0.17 0.22 0.27
0.05 0.09 0.22 0.32 0.34 0.28 0.25 0.22 0.20 0.19 0.16 0.16 0.19 0.19 0.19 0.18 0.20 0.23 0.22 0.24 0.30 0.35 0.40 0.48 0.51 0.51 0.48 0.36 0.22 0.12 0.06 0.04 0.02 0.01 0.01 0.03 0.06 0.11 0.11 0.10 0.12 0.22 0.28
0.07 0.11 0.22 0.33 0.34 0.30 0.27 0.22 0.19 0.20 0.21 0.21 0.22 0.22 0.22 0.20 0.22 0.28 0.31 0.32 0.33 0.33 0.39 0.45 0.43 0.39 0.36 0.25 0.13 0.07 0.04 0.03 0.02 0.01 0.02 0.05 0.08 0.13 0.14 0.12 0.16 0.23 0.27
0.11 0.13 0.21 0.33 0.36 0.32 0.28 0.23 0.21 0.23 0.25 0.28 0.29 0.30 0.31 0.29 0.28 0.31 0.35 0.33 0.31 0.31 0.34 0.32 0.26 0.21 0.18 0.14 0.10 0.06 0.04 0.03 0.02 0.03 0.06 0.08 0.10 0.20 0.21 0.18 0.19 0.19 0.21
0.17 0.17 0.24 0.34 0.40 0.38 0.32 0.26 0.24 0.26 0.28 0.30 0.34 0.38 0.40 0.40 0.39 0.36 0.35 0.31 0.27 0.25 0.22 0.17 0.14 0.13 0.12 0.10 0.08 0.05 0.04 0.02 0.02 0.03 0.06 0.09 0.14 0.27 0.24 0.20 0.21 0.21 0.20
0.20 0.25 0.33 0.40 0.45 0.46 0.40 0.33 0.30 0.32 0.32 0.33 0.35 0.39 0.45 0.50 0.50 0.45 0.37 0.26 0.21 0.18 0.15 0.12 0.11 0.11 0.09 0.07 0.06 0.05 0.04 0.02 0.01 0.03 0.05 0.08 0.14 0.28 0.23 0.19 0.19 0.20 0.20
0.21 0.29 0.40 0.48 0.50 0.50 0.48 0.44 0.41 0.40 0.38 0.37 0.37 0.41 0.47 0.49 0.47 0.43 0.32 0.23 0.18 0.16 0.14 0.11 0.10 0.11 0.10 0.08 0.06 0.06 0.04 0.02 0.02 0.03 0.05 0.08 0.15 0.27 0.23 0.18 0.16 0.16 0.17
0.22 0.34 0.47 0.58 0.57 0.53 0.50 0.49 0.49 0.47 0.46 0.44 0.42 0.44 0.47 0.48 0.45 0.39 0.31 0.24 0.20 0.18 0.17 0.14 0.12 0.10 0.11 0.10 0.09 0.08 0.06 0.03 0.03 0.03 0.04 0.06 0.10 0.16 0.13 0.11 0.11 0.12 0.12
0.32 0.43 0.54 0.67 0.69 0.65 0.60 0.55 0.51 0.51 0.52 0.53 0.52 0.52 0.47 0.42 0.41 0.37 0.33 0.26 0.22 0.19 0.19 0.16 0.14 0.12 0.12 0.12 0.11 0.09 0.06 0.03 0.03 0.02 0.02 0.03 0.06 0.10 0.10 0.11 0.12 0.13 0.14
0.53 0.59 0.67 0.76 0.75 0.69 0.65 0.62 0.57 0.52 0.52 0.55 0.57 0.52 0.47 0.41 0.39 0.36 0.29 0.26 0.22 0.20 0.19 0.16 0.15 0.13 0.13 0.11 0.09 0.07 0.06 0.05 0.03 0.02 0.02 0.02 0.04 0.07 0.09 0.11 0.11 0.13 0.15
0.82 0.78 0.80 0.85 0.86 0.78 0.71 0.67 0.65 0.59 0.55 0.55 0.54 0.48 0.47 0.48 0.43 0.35 0.24 0.20 0.20 0.19 0.18 0.17 0.16 0.14 0.11 0.09 0.08 0.09 0.09 0.08 0.06 0.04 0.03 0.03 0.04 0.07 0.09 0.12 0.12 0.12 0.13
0.96 0.93 0.89 0.88 0.86 0.87 0.81 0.74 0.74 0.67 0.58 0.54 0.48 0.48 0.48 0.47 0.43 0.33 0.27 0.22 0.21 0.19 0.20 0.21 0.21 0.17 0.12 0.09 0.08 0.08 0.09 0.09 0.08 0.07 0.06 0.05 0.05 0.08 0.09 0.11 0.11 0.10 0.09
1.02 1.08 1.05 1.00 0.91 0.87 0.89 0.80 0.75 0.70 0.63 0.55 0.48 0.48 0.51 0.55 0.53 0.48 0.39 0.34 0.31 0.24 0.24 0.23 0.24 0.17 0.12 0.09 0.07 0.06 0.07 0.08 0.07 0.06 0.04 0.03 0.03 0.07 0.09 0.11 0.11 0.10 0.10
1.21 1.15 1.17 1.14 1.05 0.91 0.88 0.85 0.80 0.74 0.67 0.58 0.49 0.46 0.47 0.47 0.47 0.44 0.37 0.33 0.31 0.25 0.24 0.22 0.19 0.15 0.13 0.10 0.07 0.06 0.06 0.06 0.06 0.06 0.05 0.03 0.02 0.05 0.07 0.10 0.10 0.10 0.11
1.39 1.30 1.32 1.24 1.10 1.01 0.94 0.86 0.81 0.81 0.75 0.63 0.58 0.54 0.46 0.38 0.35 0.36 0.33 0.34 0.32 0.26 0.22 0.23 0.19 0.16 0.15 0.13 0.10 0.08 0.06 0.06 0.05 0.05 0.05 0.04 0.03 0.03 0.05 0.08 0.09 0.11 0.13
1.60 1.54 1.54 1.45 1.28 1.10 1.01 0.90 0.81 0.81 0.82 0.81 0.67 0.58 0.57 0.48 0.38 0.36 0.35 0.33 0.31 0.28 0.26 0.25 0.20 0.20 0.19 0.16 0.12 0.10 0.08 0.07 0.07 0.06 0.05 0.04 0.04 0.03 0.04 0.06 0.10 0.14 0.18
1.63 1.70 1.73 1.68 1.56 1.31 1.13 1.06 0.91 0.86 0.86 0.86 0.77 0.65 0.61 0.57 0.50 0.46 0.43 0.37 0.32 0.30 0.32 0.34 0.33 0.27 0.22 0.19 0.14 0.13 0.12 0.10 0.10 0.08 0.07 0.05 0.04 0.03 0.03 0.04 0.08 0.12 0.16
1.75 1.72 1.86 1.89 1.79 1.61 1.39 1.26 1.11 0.99 0.93 0.85 0.81 0.75 0.67 0.62 0.55 0.54 0.49 0.44 0.40 0.39 0.36 0.37 0.38 0.37 0.31 0.26 0.20 0.17 0.15 0.13 0.11 0.11 0.10 0.08 0.06 0.04 0.03 0.04 0.06 0.09 0.13
1.83 1.86 1.92 2.05 2.04 1.99 1.87 1.72 1.50 1.27 1.14 1.05 0.94 0.84 0.77 0.69 0.61 0.57 0.53 0.50 0.50 0.47 0.40 0.34 0.34 0.34 0.32 0.29 0.25 0.21 0.18 0.16 0.15 0.14 0.12 0.11 0.10 0.09 0.07 0.05 0.05 0.07 0.09
2.06 2.12 2.05 2.17 2.30 2.36 2.38 2.23 2.05 1.72 1.43 1.24 1.08 1.00 0.92 0.83 0.74 0.65 0.62 0.57 0.56 0.58 0.54 0.45 0.38 0.36 0.34 0.31 0.31 0.27 0.23 0.19 0.17 0.15 0.14 0.13 0.12 0.11 0.10 0.09 0.08 0.07 0.08
2.13 2.30 2.27 2.22 2.38 2.59 2.43 2.21 2.01 1.80 1.63 1.45 1.29 1.17 1.10 1.00 0.91 0.81 0.71 0.70 0.66 0.62 0.60 0.59 0.56 0.52 0.50 0.49 0.49 0.42 0.32 0.27 0.23 0.18 0.17 0.17 0.16 0.16 0.14 0.12 0.10 0.10 0.10
1.96 2.22 2.24 2.30 2.43 2.59 2.47 2.33 2.29 2.22 2.01 1.82 1.68 1.41 1.22 1.11 1.02 0.97 0.87 0.79 0.76 0.74 0.70 0.69 0.69 0.67 0.63 0.66 0.70 0.71 0.57 0.43 0.30 0.24 0.23 0.22 0.22 0.24 0.23 0.21 0.19 0.16 0.14
1.53 1.91 2.08 2.14 2.29 2.41 2.55 2.80 2.80 2.70 2.36 1.92 1.63 1.53 1.43 1.39 1.29 1.16 1.13 1.06 0.91 0.84 0.78 0.74 0.73 0.73 0.72 0.71 0.71 0.81 0.77 0.59 0.44 0.35 0.28 0.25 0.25 0.27 0.27 0.26 0.24 0.21 0.17
1.21 1.55 1.90 2.09 2.23 2.25 2.32 2.55 2.65 2.52 2.18 1.83 1.62 1.63 1.68 1.63 1.59 1.53 1.40 1.34 1.22 1.06 0.93 0.90 0.87 0.86 0.89 0.86 0.82 0.76 0.71 0.64 0.64 0.53 0.38 0.32 0.30 0.29 0.31 0.30 0.27 0.24 0.23
1.03 1.35 1.67 1.90 2.12 2.16 2.09 2.19 2.40 2.48 2.35 2.19 2.01 1.88 1.81 1.75 1.64 1.62 1.59 1.51 1.41 1.30 1.21 1.15 1.09 1.06 1.05 1.01 0.95 0.89 0.86 0.77 0.72 0.73 0.54 0.38 0.38 0.37 0.39 0.39 0.37 0.36 0.35
0.87 1.03 1.34 1.62 1.93 2.11 2.06 2.09 2.17 2.22 2.29 2.21 2.06 2.02 1.93 1.90 1.77 1.62 1.59 1.58 1.52 1.48 1.43 1.40 1.37 1.27 1.20 1.15 1.10 1.04 1.04 0.99 0.86 0.88 0.81 0.60 0.54 0.48 0.48 0.49 0.49 0.49 0.48

GEFSSE_prec_meanprecacc_174.txt.gz
Total_Precipitation_Accumulation
0.04 0.09 0.23 0.31 0.35 0.30 0.26 0.24 0.19 0.17 0.16 0.17 0.18 0.18 0.17 0.17 0.16 0.15 0.16 0.19 0.28 0.35 0.40 0.43 0.50 0.52 0.51 0.42 0.31 0.19 0.13 0.12 0.08 0.06 0.06 0.08 0.12 0.15 0.14 0.15 0.18 0.23 0.27
0.05 0.09 0.22 0.32 0.35 0.29 0.26 0.24 0.22 0.21 0.18 0.17 0.20 0.21 0.21 0.20 0.22 0.24 0.23 0.26 0.32 0.38 0.43 0.49 0.53 0.52 0.48 0.37 0.23 0.13 0.06 0.05 0.03 0.01 0.01 0.03 0.06 0.11 0.12 0.11 0.12 0.22 0.28
0.08 0.12 0.22 0.34 0.34 0.31 0.27 0.22 0.20 0.21 0.22 0.23 0.24 0.25 0.25 0.23 0.25 0.31 0.33 0.33 0.34 0.36 0.42 0.47 0.44 0.40 0.37 0.26 0.14 0.08 0.05 0.04 0.02 0.01 0.03 0.05 0.08 0.13 0.14 0.12 0.16 0.23 0.28
0.12 0.14 0.22 0.33 0.36 0.32 0.28 0.23 0.22 0.24 0.26 0.29 0.31 0.32 0.34 0.31 0.32 0.35 0.38 0.36 0.33 0.33 0.36 0.35 0.28 0.22 0.20 0.15 0.11 0.07 0.05 0.04 0.03 0.03 0.07 0.09 0.11 0.20 0.21 0.18 0.19 0.19 0.21
0.18 0.19 0.25 0.35 0.41 0.38 0.32 0.27 0.24 0.26 0.29 0.31 0.35 0.40 0.42 0.43 0.43 0.40 0.39 0.35 0.30 0.27 0.24 0.18 0.15 0.14 0.13 0.11 0.09 0.06 0.04 0.03 0.02 0.04 0.06 0.10 0.15 0.29 0.25 0.21 0.21 0.21 0.21
0.21 0.26 0.34 0.42 0.47 0.47 0.40 0.33 0.30 0.32 0.32 0.34 0.36 0.41 0.47 0.53 0.53 0.48 0.39 0.28 0.23 0.20 0.17 0.14 0.12 0.12 0.10 0.08 0.07 0.06 0.04 0.02 0.02 0.03 0.05 0.08 0.15 0.29 0.24 0.20 0.19 0.20 0.21
0.22 0.30 0.41 0.50 0.52 0.52 0.49 0.44 0.41 0.40 0.39 0.38 0.38 0.43 0.49 0.51 0.49 0.45 0.33 0.24 0.19 0.18 0.16 0.14 0.12 0.12 0.11 0.08 0.07 0.07 0.06 0.03 0.02 0.03 0.06 0.09 0.16 0.29 0.24 0.18 0.17 0.17 0.17
0.23 0.36 0.48 0.60 0.59 0.56 0.52 0.50 0.50 0.47 0.47 0.45 0.43 0.46 0.49 0.50 0.47 0.41 0.33 0.26 0.21 0.19 0.19 0.17 0.14 0.12 0.12 0.11 0.09 0.08 0.07 0.03 0.03 0.04 0.05 0.07 0.11 0.18 0.15 0.12 0.12 0.13 0.13
0.34 0.45 0.56 0.69 0.71 0.68 0.63 0.56 0.52 0.52 0.53 0.54 0.53 0.54 0.48 0.43 0.42 0.39 0.34 0.28 0.24 0.21 0.20 0.18 0.17 0.14 0.13 0.13 0.12 0.09 0.06 0.03 0.03 0.03 0.03 0.04 0.06 0.11 0.12 0.13 0.14 0.14 0.15
0.56 0.61 0.70 0.79 0.78 0.72 0.68 0.64 0.59 0.55 0.54 0.57 0.58 0.53 0.48 0.42 0.40 0.38 0.31 0.27 0.23 0.21 0.20 0.18 0.17 0.15 0.14 0.13 0.11 0.08 0.06 0.05 0.04 0.02 0.02 0.02 0.04 0.08 0.11 0.14 0.13 0.14 0.16
0.85 0.81 0.83 0.89 0.89 0.82 0.75 0.70 0.68 0.61 0.56 0.57 0.56 0.49 0.48 0.49 0.44 0.37 0.26 0.21 0.20 0.20 0.19 0.19 0.17 0.15 0.13 0.10 0.09 0.10 0.10 0.08 0.06 0.05 0.04 0.04 0.06 0.09 0.11 0.14 0.14 0.14 0.14
0.99 0.96 0.92 0.92 0.91 0.91 0.86 0.78 0.78 0.70 0.61 0.57 0.50 0.50 0.51 0.50 0.46 0.35 0.29 0.24 0.21 0.20 0.21 0.23 0.23 0.19 0.14 0.10 0.09 0.10 0.10 0.10 0.09 0.08 0.07 0.07 0.08 0.11 0.13 0.14 0.13 0.11 0.11
1.06 1.12 1.10 1.04 0.96 0.91 0.94 0.85 0.80 0.75 0.68 0.60 0.52 0.51 0.54 0.58 0.55 0.50 0.42 0.36 0.33 0.26 0.27 0.26 0.27 0.19 0.13 0.10 0.09 0.09 0.09 0.11 0.10 0.09 0.06 0.05 0.06 0.10 0.12 0.14 0.13 0.12 0.12
1.26 1.20 1.23 1.19 1.10 0.96 0.93 0.89 0.85 0.79 0.73 0.63 0.52 0.50 0.51 0.51 0.50 0.47 0.39 0.34 0.33 0.28 0.27 0.26 0.22 0.17 0.14 0.12 0.10 0.09 0.09 0.09 0.08 0.09 0.08 0.05 0.05 0.07 0.11 0.13 0.13 0.13 0.13
1.44 1.36 1.38 1.30 1.15 1.04 0.97 0.90 0.86 0.85 0.80 0.70 0.64 0.57 0.49 0.42 0.38 0.39 0.37 0.37 0.35 0.29 0.25 0.26 0.22 0.20 0.18 0.16 0.13 0.10 0.09 0.08 0.07 0.07 0.07 0.07 0.06 0.06 0.09 0.11 0.13 0.15 0.18
1.67 1.61 1.61 1.51 1.32 1.14 1.04 0.94 0.86 0.85 0.86 0.86 0.73 0.61 0.60 0.51 0.42 0.40 0.39 0.38 0.36 0.33 0.31 0.30 0.26 0.26 0.24 0.21 0.16 0.12 0.10 0.10 0.09 0.08 0.08 0.08 0.07 0.06 0.07 0.10 0.13 0.18 0.22
1.71 1.76 1.79 1.74 1.61 1.36 1.17 1.09 0.96 0.92 0.90 0.90 0.81 0.69 0.64 0.60 0.53 0.49 0.46 0.41 0.36 0.34 0.35 0.39 0.38 0.35 0.30 0.26 0.19 0.15 0.14 0.13 0.11 0.10 0.09 0.09 0.08 0.07 0.06 0.08 0.12 0.16 0.20
1.81 1.78 1.91 1.94 1.84 1.66 1.43 1.29 1.14 1.03 0.97 0.88 0.83 0.76 0.68 0.64 0.57 0.56 0.52 0.47 0.42 0.42 0.39 0.40 0.43 0.42 0.37 0.32 0.27 0.23 0.19 0.16 0.13 0.13 0.12 0.10 0.09 0.07 0.06 0.07 0.10 0.12 0.16
1.91 1.93 1.98 2.08 2.08 2.03 1.89 1.74 1.52 1.30 1.21 1.10 0.98 0.87 0.78 0.71 0.63 0.59 0.56 0.52 0.52 0.51 0.43 0.38 0.39 0.39 0.39 0.39 0.38 0.33 0.28 0.23 0.19 0.18 0.15 0.14 0.12 0.11 0.09 0.08 0.08 0.09 0.12
2.12 2.20 2.11 2.22 2.33 2.38 2.40 2.24 2.07 1.74 1.48 1.31 1.14 1.03 0.94 0.85 0.75 0.67 0.64 0.59 0.58 0.61 0.57 0.49 0.42 0.41 0.39 0.39 0.41 0.41 0.38 0.31 0.24 0.21 0.17 0.15 0.15 0.13 0.12 0.12 0.11 0.09 0.10
2.18 2.36 2.33 2.27 2.41 2.61 2.44 2.22 2.02 1.81 1.64 1.48 1.33 1.20 1.12 1.01 0.92 0.82 0.73 0.71 0.68 0.64 0.62 0.61 0.60 0.57 0.55 0.55 0.57 0.52 0.42 0.38 0.33 0.26 0.24 0.22 0.19 0.18 0.17 0.16 0.15 0.15 0.15
2.00 2.27 2.29 2.34 2.45 2.61 2.48 2.34 2.29 2.23 2.02 1.83 1.70 1.43 1.24 1.12 1.03 0.97 0.87 0.80 0.77 0.76 0.72 0.71 0.72 0.70 0.68 0.70 0.75 0.76 0.63 0.49 0.37 0.30 0.30 0.29 0.27 0.27 0.27 0.24 0.22 0.21 0.19
1.56 1.94 2.11 2.16 2.31 2.42 2.56 2.81 2.81 2.70 2.36 1.92 1.63 1.53 1.44 1.40 1.30 1.16 1.14 1.06 0.91 0.85 0.79 0.76 0.74 0.75 0.75 0.74 0.75 0.86 0.81 0.63 0.48 0.39 0.33 0.29 0.30 0.32 0.31 0.29 0.27 0.25 0.23
1.24 1.57 1.92 2.11 2.23 2.25 2.33 2.56 2.66 2.52 2.18 1.83 1.62 1.63 1.68 1.63 1.59 1.53 1.40 1.35 1.22 1.06 0.94 0.90 0.88 0.88 0.91 0.88 0.84 0.78 0.74 0.68 0.68 0.57 0.42 0.36 0.34 0.34 0.35 0.34 0.29 0.27 0.26
1.04 1.36 1.68 1.91 2.13 2.16 2.10 2.19 2.40 2.48 2.35 2.19 2.01 1.89 1.81 1.75 1.65 1.63 1.59 1.52 1.42 1.31 1.22 1.16 1.10 1.07 1.06 1.02 0.96 0.90 0.88 0.79 0.74 0.76 0.57 0.40 0.41 0.41 0.44 0.45 0.43 0.39 0.38
0.88 1.04 1.34 1.62 1.93 2.11 2.06 2.09 2.17 2.22 2.29 2.21 2.06 2.03 1.93 1.90 1.78 1.64 1.60 1.59 1.53 1.50 1.45 1.42 1.39 1.29 1.22 1.17 1.12 1.05 1.06 1.01 0.87 0.89 0.83 0.62 0.56 0.49 0.51 0.53 0.55 0.56 0.55

GEFSSE_prec_meanprecacc_180.txt.gz
Total_Precipitation_Accumulation
0.05 0.09 0.24 0.32 0.35 0.30 0.27 0.24 0.19 0.17 0.16 0.17 0.18 0.18 0.18 0.18 0.17 0.15 0.16 0.20 0.30 0.37 0.42 0.44 0.51 0.53 0.51 0.43 0.31 0.19 0.13 0.12 0.09 0.06 0.07 0.08 0.12 0.15 0.14 0.15 0.18 0.23 0.27
0.05 0.10 0.24 0.34 0.36 0.30 0.26 0.24 0.22 0.21 0.18 0.17 0.21 0.22 0.21 0.20 0.23 0.25 0.24 0.27 0.33 0.40 0.45 0.51 0.54 0.53 0.50 0.37 0.23 0.13 0.06 0.05 0.03 0.01 0.01 0.03 0.06 0.11 0.12 0.11 0.12 0.23 0.28
0.08 0.13 0.24 0.35 0.36 0.32 0.28 0.23 0.20 0.21 0.22 0.23 0.25 0.26 0.26 0.24 0.26 0.33 0.34 0.34 0.35 0.37 0.43 0.49 0.46 0.41 0.38 0.26 0.15 0.08 0.05 0.04 0.02 0.01 0.03 0.05 0.08 0.14 0.14 0.12 0.17 0.23 0.28
0.13 0.14 0.23 0.35 0.38 0.34 0.30 0.24 0.23 0.24 0.26 0.29 0.31 0.32 0.34 0.32 0.33 0.36 0.39 0.37 0.34 0.34 0.38 0.36 0.29 0.24 0.21 0.16 0.12 0.07 0.05 0.04 0.03 0.03 0.07 0.09 0.12 0.21 0.21 0.19 0.19 0.19 0.22
0.19 0.19 0.26 0.37 0.43 0.41 0.34 0.28 0.25 0.26 0.29 0.31 0.35 0.41 0.43 0.43 0.43 0.41 0.39 0.36 0.31 0.28 0.25 0.19 0.16 0.15 0.14 0.12 0.10 0.07 0.04 0.03 0.02 0.04 0.06 0.10 0.16 0.30 0.26 0.21 0.21 0.22 0.21
0.22 0.27 0.35 0.43 0.49 0.50 0.43 0.36 0.32 0.32 0.33 0.34 0.36 0.41 0.48 0.54 0.54 0.48 0.39 0.29 0.24 0.21 0.17 0.15 0.13 0.13 0.11 0.09 0.07 0.06 0.05 0.03 0.02 0.03 0.05 0.09 0.15 0.30 0.25 0.20 0.20 0.21 0.21
0.23 0.31 0.42 0.52 0.54 0.55 0.53 0.48 0.43 0.41 0.39 0.38 0.38 0.43 0.50 0.52 0.49 0.45 0.34 0.25 0.20 0.18 0.17 0.14 0.13 0.13 0.12 0.09 0.08 0.08 0.06 0.03 0.02 0.04 0.06 0.09 0.17 0.30 0.24 0.19 0.17 0.17 0.18
0.24 0.37 0.49 0.62 0.61 0.58 0.56 0.55 0.53 0.50 0.48 0.45 0.44 0.47 0.50 0.51 0.47 0.41 0.33 0.26 0.21 0.20 0.19 0.18 0.15 0.13 0.14 0.12 0.11 0.09 0.08 0.04 0.03 0.04 0.06 0.07 0.13 0.20 0.16 0.13 0.13 0.14 0.14
0.35 0.46 0.57 0.71 0.73 0.69 0.65 0.61 0.56 0.55 0.55 0.55 0.55 0.55 0.49 0.44 0.42 0.39 0.34 0.28 0.24 0.22 0.21 0.19 0.18 0.15 0.14 0.14 0.14 0.11 0.07 0.04 0.03 0.03 0.03 0.04 0.07 0.12 0.13 0.15 0.15 0.16 0.16
0.57 0.62 0.71 0.80 0.79 0.73 0.71 0.68 0.63 0.58 0.57 0.59 0.60 0.55 0.48 0.43 0.41 0.38 0.32 0.28 0.23 0.21 0.21 0.19 0.18 0.16 0.15 0.14 0.12 0.10 0.08 0.06 0.04 0.03 0.02 0.02 0.05 0.09 0.12 0.16 0.15 0.16 0.17
0.86 0.83 0.86 0.91 0.90 0.83 0.77 0.73 0.71 0.64 0.60 0.59 0.57 0.51 0.49 0.50 0.45 0.37 0.27 0.22 0.21 0.20 0.20 0.20 0.18 0.16 0.13 0.11 0.10 0.11 0.11 0.09 0.07 0.06 0.05 0.04 0.06 0.11 0.14 0.17 0.17 0.17 0.17
1.01 0.98 0.95 0.95 0.92 0.93 0.87 0.81 0.82 0.74 0.64 0.59 0.51 0.51 0.53 0.52 0.46 0.35 0.30 0.25 0.23 0.21 0.21 0.24 0.24 0.20 0.15 0.10 0.09 0.10 0.11 0.10 0.10 0.09 0.07 0.07 0.09 0.13 0.16 0.18 0.16 0.15 0.15
1.08 1.14 1.12 1.06 0.98 0.94 0.96 0.88 0.84 0.79 0.71 0.63 0.53 0.53 0.56 0.60 0.56 0.51 0.42 0.37 0.35 0.27 0.27 0.26 0.28 0.20 0.14 0.11 0.10 0.09 0.09 0.11 0.11 0.10 0.07 0.06 0.07 0.12 0.15 0.18 0.17 0.16 0.16
1.29 1.23 1.27 1.23 1.13 0.99 0.95 0.92 0.89 0.84 0.77 0.66 0.54 0.51 0.52 0.53 0.53 0.48 0.40 0.35 0.34 0.28 0.27 0.27 0.23 0.18 0.15 0.12 0.10 0.10 0.09 0.10 0.09 0.10 0.09 0.07 0.06 0.09 0.14 0.18 0.18 0.17 0.16
1.49 1.41 1.43 1.36 1.20 1.09 1.01 0.93 0.89 0.90 0.85 0.74 0.67 0.59 0.51 0.43 0.39 0.41 0.39 0.38 0.35 0.30 0.26 0.27 0.23 0.21 0.19 0.17 0.14 0.11 0.10 0.10 0.09 0.09 0.09 0.08 0.07 0.08 0.12 0.17 0.19 0.20 0.22
1.72 1.67 1.67 1.58 1.40 1.21 1.09 0.96 0.88 0.91 0.93 0.91 0.76 0.64 0.63 0.54 0.45 0.42 0.42 0.41 0.37 0.34 0.32 0.31 0.27 0.27 0.25 0.22 0.17 0.14 0.11 0.11 0.10 0.10 0.09 0.09 0.08 0.07 0.09 0.14 0.19 0.24 0.29
1.75 1.82 1.85 1.80 1.69 1.46 1.25 1.13 0.98 0.97 0.99 0.97 0.86 0.73 0.69 0.64 0.56 0.52 0.49 0.44 0.37 0.35 0.37 0.40 0.40 0.37 0.32 0.28 0.21 0.18 0.16 0.14 0.12 0.11 0.11 0.10 0.09 0.08 0.08 0.11 0.16 0.22 0.28
1.85 1.84 1.97 2.00 1.92 1.77 1.55 1.36 1.18 1.06 1.03 0.96 0.88 0.80 0.73 0.69 0.62 0.60 0.55 0.50 0.45 0.43 0.40 0.41 0.44 0.43 0.39 0.34 0.29 0.26 0.23 0.19 0.15 0.15 0.14 0.11 0.10 0.09 0.08 0.09 0.13 0.16 0.21
1.95 1.97 2.04 2.15 2.16 2.14 2.03 1.86 1.58 1.34 1.23 1.15 1.02 0.89 0.81 0.75 0.67 0.63 0.60 0.56 0.55 0.53 0.45 0.39 0.39 0.40 0.40 0.40 0.40 0.35 0.31 0.27 0.24 0.23 0.21 0.18 0.15 0.13 0.11 0.09 0.10 0.12 0.15
2.16 2.25 2.18 2.28 2.42 2.50 2.54 2.39 2.15 1.79 1.51 1.34 1.18 1.06 0.96 0.88 0.79 0.71 0.67 0.62 0.62 0.65 0.60 0.51 0.44 0.43 0.41 0.40 0.43 0.43 0.41 0.36 0.31 0.28 0.25 0.22 0.20 0.17 0.15 0.15 0.14 0.13 0.13
2.22 2.41 2.40 2.34 2.49 2.71 2.58 2.35 2.12 1.87 1.69 1.52 1.36 1.23 1.14 1.05 0.96 0.85 0.75 0.73 0.71 0.68 0.66 0.64 0.62 0.60 0.57 0.58 0.60 0.54 0.46 0.43 0.39 0.32 0.30 0.27 0.24 0.22 0.20 0.19 0.19 0.19 0.18
2.03 2.31 2.34 2.40 2.53 2.69 2.59 2.46 2.38 2.30 2.07 1.87 1.73 1.46 1.26 1.15 1.06 1.00 0.90 0.81 0.79 0.78 0.75 0.74 0.75 0.73 0.71 0.74 0.79 0.81 0.68 0.54 0.41 0.34 0.33 0.32 0.31 0.31 0.31 0.29 0.27 0.26 0.24
1.58 1.97 2.14 2.20 2.37 2.49 2.65 2.91 2.89 2.77 2.42 1.96 1.67 1.56 1.46 1.42 1.32 1.17 1.15 1.07 0.93 0.87 0.80 0.78 0.76 0.77 0.77 0.78 0.79 0.91 0.86 0.67 0.51 0.40 0.34 0.31 0.32 0.35 0.34 0.34 0.32 0.31 0.30
1.25 1.59 1.94 2.14 2.27 2.31 2.39 2.64 2.74 2.59 2.24 1.88 1.65 1.65 1.70 1.64 1.60 1.53 1.41 1.36 1.23 1.07 0.95 0.92 0.89 0.88 0.91 0.89 0.86 0.82 0.79 0.71 0.70 0.58 0.42 0.37 0.36 0.36 0.37 0.36 0.32 0.31 0.33
1.05 1.37 1.69 1.93 2.16 2.20 2.14 2.24 2.47 2.55 2.41 2.23 2.04 1.90 1.82 1.76 1.65 1.63 1.59 1.52 1.42 1.32 1.22 1.17 1.11 1.07 1.07 1.03 0.97 0.91 0.89 0.79 0.75 0.77 0.58 0.41 0.42 0.42 0.45 0.46 0.44 0.41 0.41
0.89 1.05 1.35 1.63 1.95 2.14 2.09 2.12 2.21 2.27 2.34 2.25 2.09 2.05 1.94 1.91 1.79 1.64 1.60 1.59 1.53 1.50 1.45 1.43 1.40 1.30 1.23 1.18 1.14 1.07 1.07 1.02 0.88 0.90 0.84 0.63 0.57 0.51 0.51 0.54 0.56 0.57 0.57

GEFSSE_prec_meanprecacc_186.txt.gz
Total_Precipitation_Accumulation
0.05 0.09 0.25 0.33 0.37 0.32 0.28 0.26 0.21 0.17 0.16 0.18 0.19 0.19 0.19 0.18 0.18 0.16 0.17 0.21 0.31 0.38 0.43 0.46 0.52 0.55 0.53 0.46 0.34 0.20 0.14 0.12 0.09 0.07 0.08 0.09 0.12 0.15 0.14 0.15 0.18 0.24 0.28
0.06 0.10 0.25 0.35 0.37 0.32 0.28 0.27 0.23 0.22 0.19 0.18 0.21 0.22 0.21 0.20 0.24 0.26 0.25 0.28 0.35 0.41 0.47 0.52 0.56 0.54 0.51 0.39 0.25 0.14 0.07 0.05 0.03 0.01 0.01 0.03 0.07 0.11 0.12 0.11 0.13 0.23 0.29
0.09 0.13 0.24 0.37 0.37 0.34 0.30 0.25 0.22 0.22 0.23 0.24 0.25 0.26 0.26 0.24 0.26 0.33 0.35 0.36 0.37 0.38 0.45 0.51 0.47 0.43 0.40 0.28 0.16 0.09 0.05 0.04 0.03 0.01 0.03 0.05 0.08 0.14 0.14 0.12 0.17 0.24 0.29
0.13 0.15 0.24 0.36 0.39 0.36 0.31 0.26 0.25 0.26 0.27 0.31 0.32 0.33 0.35 0.33 0.33 0.36 0.40 0.38 0.35 0.36 0.39 0.37 0.31 0.26 0.23 0.17 0.13 0.08 0.05 0.04 0.03 0.03 0.07 0.09 0.12 0.22 0.22 0.19 0.19 0.20 0.22
0.20 0.20 0.28 0.39 0.45 0.42 0.36 0.30 0.29 0.31 0.32 0.33 0.37 0.42 0.44 0.44 0.44 0.41 0.40 0.37 0.32 0.29 0.25 0.20 0.17 0.17 0.15 0.13 0.11 0.08 0.05 0.04 0.03 0.04 0.06 0.10 0.16 0.30 0.27 0.22 0.21 0.23 0.22
0.25 0.28 0.37 0.45 0.52 0.52 0.45 0.39 0.37 0.38 0.39 0.40 0.38 0.43 0.49 0.55 0.54 0.49 0.40 0.30 0.24 0.21 0.18 0.15 0.14 0.14 0.12 0.10 0.09 0.08 0.07 0.05 0.03 0.03 0.05 0.09 0.15 0.31 0.27 0.22 0.21 0.22 0.22
0.26 0.34 0.44 0.54 0.56 0.57 0.55 0.51 0.50 0.49 0.49 0.48 0.44 0.46 0.51 0.53 0.50 0.46 0.35 0.25 0.20 0.19 0.17 0.15 0.14 0.14 0.13 0.10 0.09 0.09 0.08 0.05 0.03 0.04 0.06 0.10 0.17 0.31 0.26 0.21 0.19 0.20 0.20
0.25 0.38 0.51 0.65 0.64 0.60 0.58 0.57 0.58 0.58 0.58 0.58 0.55 0.52 0.52 0.53 0.49 0.42 0.34 0.27 0.22 0.21 0.20 0.19 0.16 0.14 0.14 0.13 0.12 0.11 0.09 0.05 0.04 0.04 0.06 0.08 0.13 0.21 0.18 0.16 0.15 0.16 0.16
0.38 0.48 0.59 0.73 0.75 0.72 0.68 0.63 0.61 0.63 0.64 0.64 0.64 0.61 0.52 0.46 0.43 0.40 0.35 0.29 0.25 0.23 0.22 0.20 0.19 0.16 0.15 0.15 0.15 0.12 0.08 0.05 0.04 0.03 0.03 0.04 0.07 0.13 0.14 0.17 0.17 0.17 0.18
0.60 0.65 0.75 0.84 0.80 0.74 0.72 0.70 0.67 0.64 0.65 0.67 0.67 0.59 0.51 0.45 0.42 0.39 0.32 0.28 0.23 0.22 0.22 0.20 0.19 0.16 0.16 0.15 0.13 0.10 0.08 0.07 0.05 0.03 0.03 0.02 0.05 0.10 0.13 0.18 0.18 0.19 0.20
0.90 0.86 0.89 0.95 0.93 0.84 0.78 0.74 0.73 0.68 0.67 0.67 0.63 0.55 0.52 0.52 0.46 0.38 0.27 0.22 0.21 0.20 0.20 0.21 0.19 0.17 0.14 0.11 0.11 0.11 0.11 0.09 0.07 0.06 0.05 0.04 0.07 0.12 0.16 0.20 0.20 0.20 0.21
1.05 1.01 0.97 0.98 0.96 0.95 0.88 0.82 0.83 0.77 0.70 0.67 0.58 0.56 0.56 0.54 0.48 0.36 0.30 0.26 0.23 0.21 0.22 0.24 0.24 0.22 0.16 0.11 0.10 0.11 0.11 0.10 0.10 0.09 0.07 0.08 0.10 0.15 0.18 0.21 0.20 0.19 0.19
1.13 1.17 1.15 1.09 1.02 0.98 0.98 0.89 0.85 0.81 0.75 0.71 0.61 0.58 0.61 0.64 0.59 0.52 0.43 0.38 0.35 0.27 0.28 0.27 0.28 0.21 0.14 0.11 0.10 0.09 0.09 0.12 0.11 0.10 0.07 0.06 0.08 0.13 0.18 0.22 0.22 0.20 0.20
1.33 1.27 1.30 1.25 1.15 1.02 0.98 0.94 0.91 0.86 0.80 0.74 0.63 0.57 0.58 0.60 0.57 0.50 0.41 0.35 0.35 0.28 0.28 0.27 0.23 0.18 0.15 0.13 0.11 0.10 0.10 0.10 0.09 0.10 0.09 0.08 0.07 0.11 0.17 0.21 0.22 0.22 0.21
1.54 1.46 1.47 1.39 1.23 1.11 1.03 0.96 0.92 0.94 0.89 0.80 0.76 0.66 0.56 0.50 0.45 0.44 0.40 0.39 0.36 0.30 0.26 0.27 0.23 0.21 0.20 0.18 0.15 0.12 0.10 0.10 0.09 0.09 0.09 0.09 0.08 0.09 0.15 0.19 0.23 0.25 0.28
1.78 1.74 1.73 1.62 1.44 1.24 1.11 0.98 0.91 0.94 0.96 0.97 0.87 0.72 0.68 0.60 0.51 0.46 0.44 0.42 0.38 0.35 0.33 0.31 0.28 0.27 0.26 0.23 0.18 0.14 0.11 0.11 0.11 0.10 0.10 0.10 0.09 0.08 0.11 0.16 0.22 0.29 0.34
1.80 1.89 1.94 1.87 1.75 1.50 1.28 1.14 1.00 1.00 1.03 1.03 0.96 0.82 0.74 0.71 0.66 0.58 0.52 0.45 0.38 0.36 0.37 0.40 0.41 0.37 0.32 0.28 0.22 0.18 0.16 0.14 0.13 0.11 0.11 0.10 0.10 0.09 0.09 0.13 0.19 0.26 0.32
1.89 1.87 2.04 2.07 1.98 1.82 1.59 1.39 1.20 1.08 1.06 1.01 0.97 0.90 0.80 0.75 0.71 0.69 0.60 0.53 0.47 0.44 0.41 0.42 0.44 0.43 0.39 0.35 0.30 0.27 0.23 0.20 0.16 0.15 0.14 0.12 0.10 0.09 0.09 0.11 0.14 0.19 0.26
1.96 1.99 2.08 2.23 2.22 2.19 2.08 1.90 1.61 1.36 1.25 1.18 1.08 0.97 0.90 0.81 0.73 0.71 0.67 0.59 0.58 0.55 0.46 0.40 0.40 0.40 0.40 0.41 0.40 0.35 0.31 0.27 0.25 0.24 0.22 0.18 0.15 0.14 0.12 0.11 0.11 0.14 0.18
2.17 2.26 2.20 2.34 2.52 2.56 2.59 2.46 2.23 1.84 1.54 1.37 1.22 1.12 1.04 0.95 0.83 0.76 0.74 0.69 0.66 0.67 0.62 0.52 0.44 0.43 0.41 0.41 0.43 0.43 0.41 0.37 0.32 0.30 0.27 0.24 0.22 0.19 0.17 0.17 0.15 0.14 0.15
2.23 2.42 2.42 2.39 2.58 2.82 2.66 2.42 2.22 1.98 1.76 1.57 1.41 1.30 1.22 1.12 1.01 0.90 0.80 0.81 0.78 0.72 0.69 0.66 0.63 0.60 0.58 0.58 0.60 0.55 0.46 0.44 0.40 0.34 0.32 0.29 0.26 0.24 0.22 0.21 0.20 0.20 0.20
2.04 2.32 2.36 2.44 2.60 2.80 2.69 2.56 2.48 2.40 2.18 1.95 1.79 1.52 1.33 1.23 1.12 1.05 0.94 0.86 0.87 0.86 0.81 0.78 0.76 0.74 0.71 0.74 0.79 0.81 0.69 0.55 0.42 0.35 0.34 0.34 0.33 0.33 0.33 0.30 0.28 0.26 0.25
1.60 1.99 2.17 2.23 2.41 2.56 2.74 3.01 3.01 2.89 2.53 2.08 1.76 1.64 1.53 1.48 1.39 1.22 1.19 1.10 0.97 0.94 0.87 0.82 0.79 0.79 0.77 0.78 0.80 0.92 0.87 0.68 0.53 0.43 0.36 0.34 0.35 0.37 0.36 0.35 0.33 0.32 0.31
1.28 1.62 1.98 2.17 2.31 2.35 2.46 2.72 2.83 2.70 2.35 2.00 1.78 1.74 1.78 1.72 1.67 1.58 1.44 1.38 1.25 1.11 1.00 0.96 0.94 0.92 0.94 0.91 0.87 0.83 0.81 0.74 0.72 0.60 0.44 0.39 0.37 0.37 0.39 0.37 0.33 0.32 0.34
1.08 1.41 1.73 1.97 2.20 2.24 2.20 2.32 2.55 2.63 2.49 2.31 2.14 2.01 1.91 1.83 1.72 1.68 1.63 1.55 1.44 1.34 1.26 1.21 1.16 1.12 1.11 1.06 0.99 0.94 0.92 0.82 0.77 0.79 0.60 0.43 0.44 0.43 0.46 0.46 0.44 0.42 0.41
0.91 1.07 1.38 1.67 2.00 2.18 2.14 2.18 2.27 2.33 2.40 2.31 2.14 2.12 2.02 1.98 1.85 1.68 1.64 1.62 1.55 1.52 1.48 1.45 1.43 1.34 1.27 1.22 1.17 1.10 1.10 1.05 0.91 0.93 0.86 0.65 0.59 0.52 0.53 0.55 0.57 0.58 0.57